Wetterdaten: Sonntag, 01.03.2020
Datum Zeit Temp. Aussen Temp. o. S. Temp +5cm Feuchte Auss Luftdruck Regen Sonnenschein Regendauer Solar Windben Empfang
01.03.2020 00:00 5,9 C 5,0 C 4,4 C 84 % 995,4 hPa 0,0 l/m 0 min 0 min 0 W/m 38,6 km/h (5 Bft) 97,87 %
01.03.2020 00:02 5,9 C 5,0 C 4,4 C 84 % 995,4 hPa 0,0 l/m 0 min 0 min 0 W/m 38,6 km/h (5 Bft) 7,69 %
01.03.2020 00:04 5,8 C 5,0 C 4,4 C 84 % 995,6 hPa 0,0 l/m 0 min 0 min 0 W/m 38,6 km/h (5 Bft) 76,32 %
01.03.2020 00:08 5,8 C 5,0 C 4,4 C 85 % 995,4 hPa 0,0 l/m 0 min 0 min 0 W/m 51,5 km/h (7 Bft) 93,62 %
01.03.2020 00:10 5,8 C 5,0 C 4,4 C 85 % 995,7 hPa 0,0 l/m 0 min 0 min 0 W/m 38,6 km/h (5 Bft) 95,65 %
01.03.2020 00:12 5,8 C 5,0 C 4,4 C 85 % 995,5 hPa 0,0 l/m 0 min 0 min 0 W/m 38,6 km/h (5 Bft) 95,74 %
01.03.2020 00:14 5,7 C 5,0 C 4,4 C 85 % 995,6 hPa 0,0 l/m 0 min 0 min 0 W/m 25,7 km/h (4 Bft) 95,74 %
01.03.2020 00:16 5,7 C 5,0 C 4,4 C 85 % 995,6 hPa 0,0 l/m 0 min 0 min 0 W/m 29,0 km/h (5 Bft) 95,74 %
01.03.2020 00:18 5,7 C 5,0 C 4,4 C 85 % 995,4 hPa 0,0 l/m 0 min 0 min 0 W/m 32,2 km/h (5 Bft) 93,62 %
01.03.2020 00:20 5,7 C 5,0 C 4,4 C 86 % 995,8 hPa 0,0 l/m 0 min 0 min 0 W/m 35,4 km/h (5 Bft) 93,62 %
01.03.2020 00:22 5,7 C 5,0 C 4,4 C 86 % 995,6 hPa 0,0 l/m 0 min 0 min 0 W/m 35,4 km/h (5 Bft) 89,13 %
01.03.2020 00:24 5,7 C 5,0 C 4,4 C 86 % 995,6 hPa 0,0 l/m 0 min 0 min 0 W/m 25,7 km/h (4 Bft) 90,91 %
01.03.2020 00:26 5,7 C 5,0 C 4,4 C 86 % 995,7 hPa 0,0 l/m 0 min 0 min 0 W/m 25,7 km/h (4 Bft) 93,62 %
01.03.2020 00:28 5,6 C 5,0 C 4,4 C 86 % 995,7 hPa 0,0 l/m 0 min 0 min 0 W/m 35,4 km/h (5 Bft) 95,65 %
01.03.2020 00:30 5,6 C 5,0 C 4,4 C 86 % 995,6 hPa 0,0 l/m 0 min 0 min 0 W/m 19,3 km/h (3 Bft) 93,62 %
01.03.2020 00:32 5,6 C 5,0 C 4,4 C 86 % 995,7 hPa 0,0 l/m 0 min 0 min 0 W/m 25,7 km/h (4 Bft) 93,62 %
01.03.2020 00:34 5,6 C 4,4 C 3,9 C 86 % 995,7 hPa 0,0 l/m 0 min 0 min 0 W/m 29,0 km/h (5 Bft) 93,62 %
01.03.2020 00:36 5,6 C 5,0 C 3,9 C 86 % 995,5 hPa 0,0 l/m 0 min 0 min 0 W/m 41,8 km/h (6 Bft) 95,74 %
01.03.2020 00:38 5,6 C 5,0 C 3,9 C 86 % 995,7 hPa 0,0 l/m 0 min 0 min 0 W/m 29,0 km/h (5 Bft) 93,62 %
01.03.2020 00:40 5,6 C 5,0 C 3,9 C 86 % 995,5 hPa 0,0 l/m 0 min 0 min 0 W/m 25,7 km/h (4 Bft) 95,65 %
01.03.2020 00:42 5,6 C 4,4 C 3,9 C 86 % 995,6 hPa 0,0 l/m 0 min 0 min 0 W/m 25,7 km/h (4 Bft) 95,74 %
01.03.2020 00:44 5,5 C 4,4 C 3,9 C 86 % 995,7 hPa 0,0 l/m 0 min 0 min 0 W/m 22,5 km/h (4 Bft) 95,74 %
01.03.2020 00:46 5,5 C 4,4 C 3,9 C 86 % 995,7 hPa 0,0 l/m 0 min 0 min 0 W/m 29,0 km/h (5 Bft) 95,74 %
01.03.2020 00:48 5,5 C 4,4 C 3,9 C 86 % 995,8 hPa 0,0 l/m 0 min 0 min 0 W/m 35,4 km/h (5 Bft) 95,74 %
01.03.2020 00:50 5,4 C 4,4 C 3,9 C 87 % 995,7 hPa 0,0 l/m 0 min 0 min 0 W/m 29,0 km/h (5 Bft) 97,87 %
01.03.2020 00:52 5,4 C 4,4 C 3,9 C 87 % 995,7 hPa 0,0 l/m 0 min 0 min 0 W/m 25,7 km/h (4 Bft) 97,83 %
01.03.2020 00:54 5,4 C 5,0 C 3,9 C 87 % 995,7 hPa 0,0 l/m 0 min 0 min 0 W/m 35,4 km/h (5 Bft) 95,74 %
01.03.2020 00:56 5,4 C 4,4 C 3,9 C 87 % 995,7 hPa 0,0 l/m 0 min 0 min 0 W/m 19,3 km/h (3 Bft) 95,74 %
01.03.2020 00:58 5,4 C 4,4 C 3,9 C 87 % 995,7 hPa 0,0 l/m 0 min 0 min 0 W/m 16,1 km/h (3 Bft) 95,74 %
01.03.2020 01:00 5,4 C 4,4 C 3,9 C 87 % 995,7 hPa 0,0 l/m 0 min 0 min 0 W/m 19,3 km/h (3 Bft) 97,87 %
01.03.2020 01:02 5,3 C 4,4 C 3,9 C 87 % 995,7 hPa 0,0 l/m 0 min 0 min 0 W/m 25,7 km/h (4 Bft) 95,65 %
01.03.2020 01:04 5,3 C 4,4 C 3,9 C 87 % 995,7 hPa 0,0 l/m 0 min 0 min 0 W/m 25,7 km/h (4 Bft) 95,74 %
01.03.2020 01:06 5,3 C 4,4 C 3,9 C 86 % 995,7 hPa 0,0 l/m 0 min 0 min 0 W/m 25,7 km/h (4 Bft) 97,87 %
01.03.2020 01:08 5,3 C 4,4 C 3,9 C 86 % 995,7 hPa 0,0 l/m 0 min 0 min 0 W/m 22,5 km/h (4 Bft) 95,74 %
01.03.2020 01:10 5,3 C 4,4 C 3,9 C 86 % 995,7 hPa 0,0 l/m 0 min 0 min 0 W/m 29,0 km/h (5 Bft) 97,87 %
01.03.2020 01:12 5,3 C 4,4 C 3,9 C 86 % 995,7 hPa 0,0 l/m 0 min 0 min 0 W/m 25,7 km/h (4 Bft) 95,74 %
01.03.2020 01:14 5,3 C 4,4 C 3,9 C 86 % 995,7 hPa 0,0 l/m 0 min 0 min 0 W/m 32,2 km/h (5 Bft) 97,83 %
01.03.2020 01:16 5,3 C 4,4 C 3,9 C 86 % 995,6 hPa 0,0 l/m 0 min 0 min 0 W/m 19,3 km/h (3 Bft) 97,87 %
01.03.2020 01:18 5,3 C 4,4 C 3,9 C 86 % 995,6 hPa 0,0 l/m 0 min 0 min 0 W/m 22,5 km/h (4 Bft) 97,87 %
01.03.2020 01:20 5,3 C 4,4 C 3,9 C 86 % 995,7 hPa 0,0 l/m 0 min 0 min 0 W/m 22,5 km/h (4 Bft) 97,87 %
01.03.2020 01:22 5,3 C 4,4 C 3,9 C 86 % 995,6 hPa 0,0 l/m 0 min 0 min 0 W/m 22,5 km/h (4 Bft) 100,00 %
01.03.2020 01:24 5,3 C 5,0 C 3,9 C 86 % 995,7 hPa 0,0 l/m 0 min 0 min 0 W/m 45,1 km/h (6 Bft) 100,00 %
01.03.2020 01:26 5,3 C 5,0 C 3,9 C 86 % 995,7 hPa 0,0 l/m 0 min 0 min 0 W/m 35,4 km/h (5 Bft) 97,83 %
01.03.2020 01:28 5,3 C 5,0 C 3,9 C 86 % 995,7 hPa 0,0 l/m 0 min 0 min 0 W/m 25,7 km/h (4 Bft) 100,00 %
01.03.2020 01:30 5,3 C 5,0 C 3,9 C 86 % 995,7 hPa 0,0 l/m 0 min 0 min 0 W/m 25,7 km/h (4 Bft) 100,00 %
01.03.2020 01:32 5,3 C 5,0 C 3,9 C 86 % 995,7 hPa 0,0 l/m 0 min 0 min 0 W/m 25,7 km/h (4 Bft) 100,00 %
01.03.2020 01:34 5,3 C 4,4 C 3,9 C 85 % 995,7 hPa 0,0 l/m 0 min 0 min 0 W/m 22,5 km/h (4 Bft) 100,00 %
01.03.2020 01:36 5,4 C 5,0 C 3,9 C 85 % 995,6 hPa 0,0 l/m 0 min 0 min 0 W/m 29,0 km/h (5 Bft) 100,00 %
01.03.2020 01:38 5,4 C 4,4 C 3,9 C 85 % 995,6 hPa 0,0 l/m 0 min 0 min 0 W/m 22,5 km/h (4 Bft) 100,00 %
01.03.2020 01:40 5,4 C 4,4 C 3,9 C 85 % 995,6 hPa 0,0 l/m 0 min 0 min 0 W/m 19,3 km/h (3 Bft) 97,87 %
01.03.2020 01:42 5,3 C 4,4 C 3,9 C 85 % 995,6 hPa 0,0 l/m 0 min 0 min 0 W/m 22,5 km/h (4 Bft) 100,00 %
01.03.2020 01:44 5,3 C 4,4 C 3,9 C 85 % 995,5 hPa 0,0 l/m 0 min 0 min 0 W/m 29,0 km/h (5 Bft) 100,00 %
01.03.2020 01:46 5,3 C 4,4 C 3,9 C 85 % 995,5 hPa 0,0 l/m 0 min 0 min 0 W/m 16,1 km/h (3 Bft) 100,00 %
01.03.2020 01:48 5,3 C 4,4 C 3,9 C 85 % 995,6 hPa 0,0 l/m 0 min 0 min 0 W/m 19,3 km/h (3 Bft) 100,00 %
01.03.2020 01:50 5,3 C 4,4 C 3,9 C 85 % 995,6 hPa 0,0 l/m 0 min 0 min 0 W/m 25,7 km/h (4 Bft) 100,00 %
01.03.2020 01:52 5,3 C 4,4 C 3,9 C 85 % 995,6 hPa 0,0 l/m 0 min 0 min 0 W/m 35,4 km/h (5 Bft) 97,87 %
01.03.2020 01:54 5,3 C 4,4 C 3,9 C 85 % 995,6 hPa 0,0 l/m 0 min 0 min 0 W/m 25,7 km/h (4 Bft) 100,00 %
01.03.2020 01:56 5,3 C 4,4 C 3,9 C 85 % 995,6 hPa 0,0 l/m 0 min 0 min 0 W/m 35,4 km/h (5 Bft) 100,00 %
01.03.2020 01:58 5,3 C 4,4 C 3,9 C 85 % 995,6 hPa 0,0 l/m 0 min 0 min 0 W/m 32,2 km/h (5 Bft) 100,00 %
01.03.2020 02:00 5,3 C 5,0 C 3,9 C 85 % 995,6 hPa 0,0 l/m 0 min 0 min 0 W/m 41,8 km/h (6 Bft) 100,00 %
01.03.2020 02:02 5,3 C 4,4 C 3,9 C 85 % 995,6 hPa 0,0 l/m 0 min 0 min 0 W/m 19,3 km/h (3 Bft) 100,00 %
01.03.2020 02:04 5,3 C 4,4 C 3,9 C 85 % 995,6 hPa 0,0 l/m 0 min 0 min 0 W/m 32,2 km/h (5 Bft) 100,00 %
01.03.2020 02:06 5,3 C 4,4 C 3,9 C 85 % 995,6 hPa 0,0 l/m 0 min 0 min 0 W/m 25,7 km/h (4 Bft) 100,00 %
01.03.2020 02:08 5,3 C 4,4 C 3,9 C 84 % 995,5 hPa 0,0 l/m 0 min 0 min 0 W/m 16,1 km/h (3 Bft) 100,00 %
01.03.2020 02:10 5,3 C 4,4 C 3,9 C 84 % 995,6 hPa 0,0 l/m 0 min 0 min 0 W/m 22,5 km/h (4 Bft) 97,87 %
01.03.2020 02:12 5,3 C 4,4 C 3,9 C 84 % 995,6 hPa 0,0 l/m 0 min 0 min 0 W/m 25,7 km/h (4 Bft) 100,00 %
01.03.2020 02:14 5,3 C 4,4 C 3,9 C 84 % 995,5 hPa 0,0 l/m 0 min 0 min 0 W/m 16,1 km/h (3 Bft) 100,00 %
01.03.2020 02:16 5,3 C 4,4 C 3,9 C 84 % 995,6 hPa 0,0 l/m 0 min 0 min 0 W/m 29,0 km/h (5 Bft) 100,00 %
01.03.2020 02:18 5,3 C 4,4 C 3,9 C 84 % 995,5 hPa 0,0 l/m 0 min 0 min 0 W/m 22,5 km/h (4 Bft) 100,00 %
01.03.2020 02:20 5,3 C 4,4 C 3,9 C 84 % 995,5 hPa 0,0 l/m 0 min 0 min 0 W/m 35,4 km/h (5 Bft) 95,74 %
01.03.2020 02:22 5,3 C 4,4 C 3,9 C 83 % 995,5 hPa 0,0 l/m 0 min 0 min 0 W/m 22,5 km/h (4 Bft) 100,00 %
01.03.2020 02:24 5,3 C 4,4 C 3,9 C 83 % 995,5 hPa 0,0 l/m 0 min 0 min 0 W/m 22,5 km/h (4 Bft) 100,00 %
01.03.2020 02:26 5,3 C 4,4 C 3,9 C 83 % 995,4 hPa 0,0 l/m 0 min 0 min 0 W/m 22,5 km/h (4 Bft) 100,00 %
01.03.2020 02:28 5,3 C 4,4 C 3,9 C 83 % 995,4 hPa 0,0 l/m 0 min 0 min 0 W/m 22,5 km/h (4 Bft) 95,74 %
01.03.2020 02:30 5,3 C 4,4 C 3,9 C 83 % 995,4 hPa 0,0 l/m 0 min 0 min 0 W/m 38,6 km/h (5 Bft) 97,87 %
01.03.2020 02:32 5,3 C 4,4 C 3,9 C 83 % 995,4 hPa 0,0 l/m 0 min 0 min 0 W/m 22,5 km/h (4 Bft) 95,74 %
01.03.2020 02:34 5,3 C 4,4 C 3,9 C 83 % 995,4 hPa 0,0 l/m 0 min 0 min 0 W/m 38,6 km/h (5 Bft) 97,87 %
01.03.2020 02:36 5,3 C 4,4 C 3,9 C 83 % 995,5 hPa 0,0 l/m 0 min 0 min 0 W/m 38,6 km/h (5 Bft) 95,65 %
01.03.2020 02:38 5,3 C 5,0 C 3,9 C 83 % 995,4 hPa 0,0 l/m 0 min 0 min 0 W/m 29,0 km/h (5 Bft) 97,87 %
01.03.2020 02:40 5,3 C 4,4 C 3,9 C 83 % 995,4 hPa 0,0 l/m 0 min 0 min 0 W/m 22,5 km/h (4 Bft) 97,87 %
01.03.2020 02:42 5,3 C 5,0 C 3,9 C 83 % 995,4 hPa 0,0 l/m 0 min 0 min 0 W/m 32,2 km/h (5 Bft) 97,87 %
01.03.2020 02:44 5,3 C 5,0 C 3,9 C 82 % 995,4 hPa 0,0 l/m 0 min 0 min 0 W/m 19,3 km/h (3 Bft) 97,87 %
01.03.2020 02:46 5,3 C 4,4 C 3,9 C 82 % 995,4 hPa 0,0 l/m 0 min 0 min 0 W/m 19,3 km/h (3 Bft) 97,87 %
01.03.2020 02:48 5,3 C 4,4 C 3,9 C 82 % 995,4 hPa 0,0 l/m 0 min 0 min 0 W/m 19,3 km/h (3 Bft) 95,65 %
01.03.2020 02:50 5,3 C 4,4 C 3,9 C 82 % 995,3 hPa 0,0 l/m 0 min 0 min 0 W/m 22,5 km/h (4 Bft) 95,74 %
01.03.2020 02:52 5,3 C 4,4 C 3,9 C 82 % 995,3 hPa 0,0 l/m 0 min 0 min 0 W/m 16,1 km/h (3 Bft) 95,74 %
01.03.2020 02:54 5,3 C 4,4 C 3,9 C 82 % 995,3 hPa 0,0 l/m 0 min 0 min 0 W/m 29,0 km/h (5 Bft) 95,74 %
01.03.2020 02:56 5,3 C 4,4 C 3,9 C 82 % 995,3 hPa 0,0 l/m 0 min 0 min 0 W/m 12,9 km/h (3 Bft) 95,74 %
01.03.2020 02:58 5,3 C 4,4 C 3,9 C 82 % 995,3 hPa 0,0 l/m 0 min 0 min 0 W/m 35,4 km/h (5 Bft) 93,48 %
01.03.2020 03:00 5,3 C 4,4 C 3,9 C 82 % 995,3 hPa 0,0 l/m 0 min 0 min 0 W/m 29,0 km/h (5 Bft) 95,74 %
01.03.2020 03:02 5,3 C 4,4 C 3,9 C 82 % 995,3 hPa 0,0 l/m 0 min 0 min 0 W/m 22,5 km/h (4 Bft) 91,49 %
01.03.2020 03:04 5,3 C 4,4 C 3,9 C 82 % 995,2 hPa 0,0 l/m 0 min 0 min 0 W/m 32,2 km/h (5 Bft) 52,27 %
01.03.2020 03:06 5,3 C 4,4 C 3,9 C 82 % 995,3 hPa 0,0 l/m 0 min 0 min 0 W/m 29,0 km/h (5 Bft) 95,74 %
01.03.2020 03:08 5,3 C 4,4 C 3,9 C 82 % 995,4 hPa 0,0 l/m 0 min 0 min 0 W/m 29,0 km/h (5 Bft) 95,74 %
01.03.2020 03:10 5,3 C 4,4 C 3,9 C 82 % 995,3 hPa 0,0 l/m 0 min 0 min 0 W/m 25,7 km/h (4 Bft) 95,65 %
01.03.2020 03:12 5,3 C 4,4 C 3,9 C 82 % 995,3 hPa 0,0 l/m 0 min 0 min 0 W/m 22,5 km/h (4 Bft) 95,74 %
01.03.2020 03:14 5,3 C 5,0 C 3,9 C 83 % 995,3 hPa 0,0 l/m 0 min 0 min 0 W/m 32,2 km/h (5 Bft) 95,74 %
01.03.2020 03:16 5,3 C 4,4 C 3,9 C 83 % 995,3 hPa 0,0 l/m 0 min 0 min 0 W/m 38,6 km/h (5 Bft) 97,87 %
01.03.2020 03:18 5,3 C 5,0 C 3,9 C 83 % 995,3 hPa 0,0 l/m 0 min 0 min 0 W/m 32,2 km/h (5 Bft) 97,87 %
01.03.2020 03:20 5,3 C 5,0 C 3,9 C 83 % 995,3 hPa 0,0 l/m 0 min 0 min 0 W/m 25,7 km/h (4 Bft) 97,87 %
01.03.2020 03:22 5,3 C 5,0 C 3,9 C 83 % 995,3 hPa 0,0 l/m 0 min 0 min 0 W/m 22,5 km/h (4 Bft) 94,74 %
01.03.2020 03:24 5,4 C 5,0 C 4,4 C 83 % 995,2 hPa 0,0 l/m 0 min 0 min 0 W/m 32,2 km/h (5 Bft) 97,83 %
01.03.2020 03:26 5,4 C 5,0 C 4,4 C 83 % 995,2 hPa 0,0 l/m 0 min 0 min 0 W/m 35,4 km/h (5 Bft) 97,87 %
01.03.2020 03:28 5,4 C 5,0 C 4,4 C 83 % 995,1 hPa 0,0 l/m 0 min 0 min 0 W/m 29,0 km/h (5 Bft) 97,87 %
01.03.2020 03:30 5,4 C 5,0 C 3,9 C 83 % 995,1 hPa 0,0 l/m 0 min 0 min 0 W/m 29,0 km/h (5 Bft) 97,87 %
01.03.2020 03:32 5,4 C 5,0 C 3,9 C 83 % 995,0 hPa 0,0 l/m 0 min 0 min 0 W/m 35,4 km/h (5 Bft) 97,87 %
01.03.2020 03:34 5,4 C 5,0 C 3,9 C 83 % 995,1 hPa 0,0 l/m 0 min 0 min 0 W/m 19,3 km/h (3 Bft) 97,87 %
01.03.2020 03:36 5,4 C 4,4 C 3,9 C 83 % 995,0 hPa 0,0 l/m 0 min 0 min 0 W/m 22,5 km/h (4 Bft) 95,65 %
01.03.2020 03:38 5,4 C 5,0 C 3,9 C 83 % 994,9 hPa 0,0 l/m 0 min 0 min 0 W/m 19,3 km/h (3 Bft) 100,00 %
01.03.2020 03:40 5,4 C 5,0 C 3,9 C 83 % 995,0 hPa 0,0 l/m 0 min 0 min 0 W/m 25,7 km/h (4 Bft) 100,00 %
01.03.2020 03:42 5,4 C 5,0 C 3,9 C 83 % 994,9 hPa 0,0 l/m 0 min 0 min 0 W/m 25,7 km/h (4 Bft) 100,00 %
01.03.2020 03:44 5,4 C 5,0 C 3,9 C 83 % 994,9 hPa 0,0 l/m 0 min 0 min 0 W/m 29,0 km/h (5 Bft) 100,00 %
01.03.2020 03:46 5,4 C 5,0 C 3,9 C 83 % 994,8 hPa 0,0 l/m 0 min 0 min 0 W/m 22,5 km/h (4 Bft) 97,87 %
01.03.2020 03:48 5,4 C 4,4 C 3,9 C 83 % 994,8 hPa 0,0 l/m 0 min 0 min 0 W/m 29,0 km/h (5 Bft) 100,00 %
01.03.2020 03:50 5,4 C 4,4 C 3,9 C 83 % 994,8 hPa 0,0 l/m 0 min 0 min 0 W/m 19,3 km/h (3 Bft) 100,00 %
01.03.2020 03:52 5,4 C 5,0 C 3,9 C 83 % 994,8 hPa 0,0 l/m 0 min 0 min 0 W/m 25,7 km/h (4 Bft) 100,00 %
01.03.2020 03:54 5,4 C 5,0 C 3,9 C 83 % 994,8 hPa 0,0 l/m 0 min 0 min 0 W/m 25,7 km/h (4 Bft) 100,00 %
01.03.2020 03:56 5,4 C 5,0 C 3,9 C 83 % 994,9 hPa 0,0 l/m 0 min 0 min 0 W/m 29,0 km/h (5 Bft) 97,87 %
01.03.2020 03:58 5,4 C 5,0 C 3,9 C 83 % 994,8 hPa 0,0 l/m 0 min 0 min 0 W/m 22,5 km/h (4 Bft) 95,74 %
01.03.2020 04:00 5,4 C 5,0 C 3,9 C 83 % 994,8 hPa 0,0 l/m 0 min 0 min 0 W/m 32,2 km/h (5 Bft) 97,83 %
01.03.2020 04:02 5,4 C 5,0 C 3,9 C 82 % 994,8 hPa 0,0 l/m 0 min 0 min 0 W/m 25,7 km/h (4 Bft) 100,00 %
01.03.2020 04:07 5,5 C 5,0 C 4,4 C 82 % 994,9 hPa 0,0 l/m 0 min 0 min 0 W/m 41,8 km/h (6 Bft) 91,43 %
01.03.2020 04:08 5,5 C 5,0 C 4,4 C 82 % 994,9 hPa 0,0 l/m 0 min 0 min 0 W/m 35,4 km/h (5 Bft) 100,00 %
01.03.2020 04:10 5,5 C 5,0 C 4,4 C 82 % 994,9 hPa 0,0 l/m 0 min 0 min 0 W/m 22,5 km/h (4 Bft) 97,87 %
01.03.2020 04:12 5,6 C 5,0 C 4,4 C 82 % 994,8 hPa 0,0 l/m 0 min 0 min 0 W/m 35,4 km/h (5 Bft) 95,65 %
01.03.2020 04:14 5,6 C 5,0 C 3,9 C 82 % 994,8 hPa 0,0 l/m 0 min 0 min 0 W/m 19,3 km/h (3 Bft) 97,87 %
01.03.2020 04:16 5,6 C 5,0 C 4,4 C 82 % 994,9 hPa 0,0 l/m 0 min 0 min 0 W/m 32,2 km/h (5 Bft) 97,87 %
01.03.2020 04:18 5,6 C 5,0 C 4,4 C 82 % 994,9 hPa 0,0 l/m 0 min 0 min 0 W/m 22,5 km/h (4 Bft) 95,74 %
01.03.2020 04:20 5,6 C 5,0 C 4,4 C 82 % 994,9 hPa 0,0 l/m 0 min 0 min 0 W/m 25,7 km/h (4 Bft) 97,87 %
01.03.2020 04:22 5,6 C 5,0 C 4,4 C 82 % 994,8 hPa 0,0 l/m 0 min 0 min 0 W/m 25,7 km/h (4 Bft) 95,74 %
01.03.2020 04:24 5,6 C 5,0 C 4,4 C 82 % 994,9 hPa 0,0 l/m 0 min 0 min 0 W/m 19,3 km/h (3 Bft) 97,83 %
01.03.2020 04:26 5,6 C 5,0 C 4,4 C 82 % 994,8 hPa 0,0 l/m 0 min 0 min 0 W/m 19,3 km/h (3 Bft) 97,87 %
01.03.2020 04:28 5,6 C 5,0 C 4,4 C 82 % 994,8 hPa 0,0 l/m 0 min 0 min 0 W/m 29,0 km/h (5 Bft) 97,87 %
01.03.2020 04:30 5,6 C 5,0 C 4,4 C 82 % 994,7 hPa 0,0 l/m 0 min 0 min 0 W/m 25,7 km/h (4 Bft) 97,87 %
01.03.2020 04:32 5,6 C 5,0 C 4,4 C 82 % 994,8 hPa 0,0 l/m 0 min 0 min 0 W/m 22,5 km/h (4 Bft) 95,74 %
01.03.2020 04:34 5,6 C 5,0 C 4,4 C 82 % 994,7 hPa 0,0 l/m 0 min 0 min 0 W/m 19,3 km/h (3 Bft) 97,83 %
01.03.2020 04:36 5,6 C 5,0 C 4,4 C 82 % 994,8 hPa 0,0 l/m 0 min 0 min 0 W/m 35,4 km/h (5 Bft) 97,62 %
01.03.2020 04:38 5,6 C 5,0 C 4,4 C 82 % 994,7 hPa 0,0 l/m 0 min 0 min 0 W/m 35,4 km/h (5 Bft) 96,61 %
01.03.2020 04:40 5,7 C 5,0 C 4,4 C 82 % 994,6 hPa 0,0 l/m 0 min 0 min 0 W/m 41,8 km/h (6 Bft) 100,00 %
01.03.2020 04:42 5,7 C 5,0 C 4,4 C 82 % 994,5 hPa 0,0 l/m 0 min 0 min 0 W/m 22,5 km/h (4 Bft) 95,83 %
01.03.2020 04:44 5,7 C 5,0 C 4,4 C 82 % 994,6 hPa 0,0 l/m 0 min 0 min 0 W/m 25,7 km/h (4 Bft) 95,83 %
01.03.2020 04:46 5,7 C 5,0 C 4,4 C 82 % 994,6 hPa 0,0 l/m 0 min 0 min 0 W/m 32,2 km/h (5 Bft) 97,92 %
01.03.2020 04:48 5,7 C 5,0 C 4,4 C 82 % 994,6 hPa 0,0 l/m 0 min 0 min 0 W/m 19,3 km/h (3 Bft) 95,74 %
01.03.2020 04:50 5,7 C 5,0 C 4,4 C 82 % 994,6 hPa 0,0 l/m 0 min 0 min 0 W/m 35,4 km/h (5 Bft) 97,87 %
01.03.2020 04:52 5,7 C 5,0 C 4,4 C 82 % 994,6 hPa 0,0 l/m 0 min 0 min 0 W/m 32,2 km/h (5 Bft) 97,87 %
01.03.2020 04:54 5,7 C 5,0 C 4,4 C 82 % 994,6 hPa 0,0 l/m 0 min 0 min 0 W/m 32,2 km/h (5 Bft) 97,87 %
01.03.2020 04:56 5,7 C 5,0 C 4,4 C 82 % 994,6 hPa 0,0 l/m 0 min 0 min 0 W/m 32,2 km/h (5 Bft) 95,74 %
01.03.2020 04:58 5,7 C 5,0 C 4,4 C 82 % 994,6 hPa 0,0 l/m 0 min 0 min 0 W/m 25,7 km/h (4 Bft) 92,86 %
01.03.2020 05:00 5,7 C 5,0 C 4,4 C 82 % 994,8 hPa 0,0 l/m 0 min 0 min 0 W/m 29,0 km/h (5 Bft) 100,00 %
01.03.2020 05:02 5,7 C 5,0 C 4,4 C 82 % 994,8 hPa 0,0 l/m 0 min 0 min 0 W/m 29,0 km/h (5 Bft) 100,00 %
01.03.2020 05:04 5,7 C 5,0 C 4,4 C 82 % 994,7 hPa 0,0 l/m 0 min 0 min 0 W/m 22,5 km/h (4 Bft) 95,24 %
01.03.2020 05:06 5,7 C 5,0 C 4,4 C 82 % 994,7 hPa 0,0 l/m 0 min 0 min 0 W/m 35,4 km/h (5 Bft) 97,92 %
01.03.2020 05:08 5,7 C 5,0 C 4,4 C 82 % 994,8 hPa 0,0 l/m 0 min 0 min 0 W/m 32,2 km/h (5 Bft) 95,83 %
01.03.2020 05:10 5,7 C 5,0 C 4,4 C 82 % 994,8 hPa 0,0 l/m 0 min 0 min 0 W/m 29,0 km/h (5 Bft) 97,92 %
01.03.2020 05:12 5,7 C 5,0 C 4,4 C 82 % 994,7 hPa 0,0 l/m 0 min 0 min 0 W/m 22,5 km/h (4 Bft) 97,87 %
01.03.2020 05:14 5,7 C 5,0 C 4,4 C 82 % 994,9 hPa 0,0 l/m 0 min 0 min 0 W/m 25,7 km/h (4 Bft) 95,83 %
01.03.2020 05:16 5,7 C 5,0 C 4,4 C 82 % 994,8 hPa 0,0 l/m 0 min 0 min 0 W/m 29,0 km/h (5 Bft) 97,92 %
01.03.2020 05:18 5,7 C 5,0 C 4,4 C 82 % 994,8 hPa 0,0 l/m 0 min 0 min 0 W/m 25,7 km/h (4 Bft) 97,87 %
01.03.2020 05:20 5,7 C 5,0 C 4,4 C 81 % 994,8 hPa 0,0 l/m 0 min 0 min 0 W/m 25,7 km/h (4 Bft) 91,49 %
01.03.2020 05:22 5,7 C 5,0 C 4,4 C 81 % 994,8 hPa 0,0 l/m 0 min 0 min 0 W/m 25,7 km/h (4 Bft) 93,48 %
01.03.2020 05:24 5,8 C 5,6 C 4,4 C 81 % 994,8 hPa 0,0 l/m 0 min 0 min 0 W/m 32,2 km/h (5 Bft) 68,09 %
01.03.2020 05:26 5,8 C 5,6 C 4,4 C 81 % 994,9 hPa 0,0 l/m 0 min 0 min 0 W/m 32,2 km/h (5 Bft) 84,44 %
01.03.2020 05:28 5,8 C 5,6 C 4,4 C 81 % 994,9 hPa 0,0 l/m 0 min 0 min 0 W/m 19,3 km/h (3 Bft) 97,56 %
01.03.2020 05:30 5,8 C 5,6 C 4,4 C 81 % 994,8 hPa 0,0 l/m 0 min 0 min 0 W/m 22,5 km/h (4 Bft) 95,83 %
01.03.2020 05:32 5,9 C 5,6 C 4,4 C 81 % 994,9 hPa 0,0 l/m 0 min 0 min 0 W/m 45,1 km/h (6 Bft) 95,83 %
01.03.2020 05:34 5,9 C 5,6 C 5,0 C 81 % 994,8 hPa 0,0 l/m 0 min 0 min 0 W/m 25,7 km/h (4 Bft) 95,83 %
01.03.2020 05:36 5,9 C 5,6 C 5,0 C 81 % 994,8 hPa 0,0 l/m 0 min 0 min 0 W/m 29,0 km/h (5 Bft) 95,74 %
01.03.2020 05:38 6,0 C 5,6 C 5,0 C 81 % 994,9 hPa 0,0 l/m 0 min 0 min 0 W/m 29,0 km/h (5 Bft) 93,44 %
01.03.2020 05:40 6,0 C 5,6 C 5,0 C 81 % 994,9 hPa 0,0 l/m 0 min 0 min 0 W/m 22,5 km/h (4 Bft) 94,29 %
01.03.2020 05:42 6,1 C 5,6 C 5,0 C 81 % 994,9 hPa 0,0 l/m 0 min 0 min 0 W/m 19,3 km/h (3 Bft) 95,74 %
01.03.2020 05:44 6,1 C 5,6 C 5,0 C 80 % 994,9 hPa 0,0 l/m 0 min 0 min 0 W/m 16,1 km/h (3 Bft) 93,48 %
01.03.2020 05:46 6,1 C 5,6 C 5,0 C 80 % 994,9 hPa 0,0 l/m 0 min 0 min 0 W/m 22,5 km/h (4 Bft) 95,74 %
01.03.2020 05:48 6,1 C 5,6 C 5,0 C 80 % 994,9 hPa 0,0 l/m 0 min 0 min 0 W/m 29,0 km/h (5 Bft) 95,74 %
01.03.2020 05:50 6,1 C 5,6 C 5,0 C 80 % 994,9 hPa 0,0 l/m 0 min 0 min 0 W/m 22,5 km/h (4 Bft) 97,87 %
01.03.2020 05:52 6,1 C 5,6 C 5,0 C 80 % 994,9 hPa 0,0 l/m 0 min 0 min 0 W/m 32,2 km/h (5 Bft) 97,56 %
01.03.2020 05:54 6,2 C 5,6 C 5,0 C 80 % 994,9 hPa 0,0 l/m 0 min 0 min 0 W/m 16,1 km/h (3 Bft) 97,92 %
01.03.2020 05:56 6,2 C 5,6 C 5,0 C 80 % 994,9 hPa 0,0 l/m 0 min 0 min 0 W/m 25,7 km/h (4 Bft) 95,83 %
01.03.2020 05:58 6,2 C 5,6 C 5,0 C 80 % 994,9 hPa 0,0 l/m 0 min 0 min 0 W/m 19,3 km/h (3 Bft) 97,96 %
01.03.2020 06:00 6,2 C 5,6 C 5,0 C 80 % 994,9 hPa 0,0 l/m 0 min 0 min 0 W/m 12,9 km/h (3 Bft) 97,87 %
01.03.2020 06:02 6,2 C 5,6 C 5,0 C 80 % 994,9 hPa 0,0 l/m 0 min 0 min 0 W/m 22,5 km/h (4 Bft) 97,92 %
01.03.2020 06:04 6,2 C 5,6 C 5,0 C 80 % 994,9 hPa 0,0 l/m 0 min 0 min 0 W/m 22,5 km/h (4 Bft) 97,87 %
01.03.2020 06:06 6,2 C 5,6 C 5,0 C 80 % 994,9 hPa 0,0 l/m 0 min 0 min 0 W/m 22,5 km/h (4 Bft) 97,56 %
01.03.2020 06:08 6,3 C 5,6 C 5,0 C 80 % 994,9 hPa 0,0 l/m 0 min 2 min 0 W/m 29,0 km/h (5 Bft) 95,83 %
01.03.2020 06:10 6,3 C 5,0 C 4,4 C 81 % 994,9 hPa 0,0 l/m 0 min 2 min 0 W/m 19,3 km/h (3 Bft) 97,92 %
01.03.2020 06:12 6,3 C 5,0 C 4,4 C 81 % 994,9 hPa 0,0 l/m 0 min 2 min 0 W/m 25,7 km/h (4 Bft) 97,87 %
01.03.2020 06:14 6,3 C 5,0 C 4,4 C 81 % 994,8 hPa 0,0 l/m 0 min 2 min 0 W/m 22,5 km/h (4 Bft) 95,83 %
01.03.2020 06:16 6,3 C 5,6 C 4,4 C 82 % 994,8 hPa 0,0 l/m 0 min 2 min 0 W/m 25,7 km/h (4 Bft) 97,92 %
01.03.2020 06:18 6,3 C 5,6 C 5,0 C 82 % 994,8 hPa 0,0 l/m 0 min 2 min 0 W/m 29,0 km/h (5 Bft) 97,92 %
01.03.2020 06:20 6,3 C 5,6 C 5,0 C 82 % 994,8 hPa 0,0 l/m 0 min 2 min 0 W/m 22,5 km/h (4 Bft) 100,00 %
01.03.2020 06:22 6,3 C 5,6 C 5,0 C 82 % 994,8 hPa 0,0 l/m 0 min 0 min 0 W/m 38,6 km/h (5 Bft) 97,87 %
01.03.2020 06:24 6,3 C 5,6 C 5,0 C 82 % 994,6 hPa 0,0 l/m 0 min 0 min 0 W/m 22,5 km/h (4 Bft) 100,00 %
01.03.2020 06:26 6,3 C 5,6 C 5,0 C 82 % 994,6 hPa 0,0 l/m 0 min 0 min 0 W/m 22,5 km/h (4 Bft) 100,00 %
01.03.2020 06:28 6,3 C 5,6 C 5,0 C 82 % 994,6 hPa 0,0 l/m 0 min 0 min 0 W/m 25,7 km/h (4 Bft) 97,87 %
01.03.2020 06:30 6,3 C 5,6 C 5,0 C 82 % 994,6 hPa 0,0 l/m 0 min 0 min 0 W/m 22,5 km/h (4 Bft) 100,00 %
01.03.2020 06:32 6,3 C 5,6 C 5,0 C 82 % 994,6 hPa 0,0 l/m 0 min 0 min 0 W/m 29,0 km/h (5 Bft) 100,00 %
01.03.2020 06:34 6,4 C 5,6 C 5,0 C 82 % 994,5 hPa 0,0 l/m 0 min 0 min 0 W/m 25,7 km/h (4 Bft) 100,00 %
01.03.2020 06:36 6,4 C 5,6 C 5,0 C 82 % 994,5 hPa 0,0 l/m 0 min 0 min 0 W/m 35,4 km/h (5 Bft) 100,00 %
01.03.2020 06:38 6,4 C 5,6 C 5,0 C 82 % 994,6 hPa 0,0 l/m 0 min 0 min 0 W/m 22,5 km/h (4 Bft) 100,00 %
01.03.2020 06:40 6,4 C 5,6 C 5,0 C 82 % 994,5 hPa 0,0 l/m 0 min 0 min 0 W/m 25,7 km/h (4 Bft) 100,00 %
01.03.2020 06:42 6,4 C 6,1 C 5,0 C 82 % 994,5 hPa 0,0 l/m 0 min 0 min 0 W/m 25,7 km/h (4 Bft) 46,15 %
01.03.2020 06:44 6,4 C 5,6 C 5,0 C 81 % 994,4 hPa 0,0 l/m 0 min 0 min 0 W/m 22,5 km/h (4 Bft) 100,00 %
01.03.2020 06:46 6,4 C 5,6 C 5,0 C 81 % 994,4 hPa 0,0 l/m 0 min 0 min 0 W/m 22,5 km/h (4 Bft) 100,00 %
01.03.2020 06:48 6,4 C 5,6 C 5,0 C 81 % 994,4 hPa 0,0 l/m 0 min 0 min 0 W/m 19,3 km/h (3 Bft) 100,00 %
01.03.2020 06:50 6,4 C 6,1 C 5,0 C 81 % 994,3 hPa 0,0 l/m 0 min 0 min 0 W/m 25,7 km/h (4 Bft) 100,00 %
01.03.2020 06:52 6,4 C 6,1 C 5,0 C 81 % 994,4 hPa 0,0 l/m 0 min 0 min 0 W/m 35,4 km/h (5 Bft) 100,00 %
01.03.2020 06:54 6,5 C 6,1 C 5,0 C 81 % 994,4 hPa 0,0 l/m 0 min 0 min 0 W/m 29,0 km/h (5 Bft) 100,00 %
01.03.2020 06:56 6,5 C 6,1 C 5,6 C 81 % 994,4 hPa 0,0 l/m 0 min 0 min 0 W/m 32,2 km/h (5 Bft) 100,00 %
01.03.2020 06:58 6,5 C 6,1 C 5,0 C 81 % 994,4 hPa 0,0 l/m 0 min 0 min 0 W/m 29,0 km/h (5 Bft) 97,87 %
01.03.2020 07:00 6,5 C 6,1 C 5,0 C 81 % 994,4 hPa 0,0 l/m 0 min 0 min 0 W/m 29,0 km/h (5 Bft) 100,00 %
01.03.2020 07:02 6,5 C 6,1 C 5,0 C 81 % 994,5 hPa 0,0 l/m 0 min 0 min 0 W/m 22,5 km/h (4 Bft) 100,00 %
01.03.2020 07:04 6,5 C 6,1 C 5,0 C 81 % 994,4 hPa 0,0 l/m 0 min 0 min 0 W/m 22,5 km/h (4 Bft) 100,00 %
01.03.2020 07:06 6,5 C 6,1 C 5,0 C 81 % 994,5 hPa 0,0 l/m 0 min 0 min 0 W/m 38,6 km/h (5 Bft) 100,00 %
01.03.2020 07:08 6,6 C 6,1 C 5,6 C 81 % 994,5 hPa 0,0 l/m 0 min 2 min 0 W/m 32,2 km/h (5 Bft) 100,00 %
01.03.2020 07:10 6,6 C 6,1 C 5,6 C 80 % 994,4 hPa 0,0 l/m 0 min 2 min 0 W/m 38,6 km/h (5 Bft) 100,00 %
01.03.2020 07:12 6,6 C 6,1 C 5,6 C 80 % 994,5 hPa 0,0 l/m 0 min 2 min 0 W/m 25,7 km/h (4 Bft) 100,00 %
01.03.2020 07:14 6,6 C 6,1 C 5,6 C 80 % 994,4 hPa 0,0 l/m 0 min 0 min 0 W/m 25,7 km/h (4 Bft) 97,87 %
01.03.2020 07:16 6,6 C 6,1 C 5,0 C 80 % 994,4 hPa 0,0 l/m 0 min 0 min 0 W/m 22,5 km/h (4 Bft) 100,00 %
01.03.2020 07:18 6,6 C 6,1 C 5,0 C 80 % 994,4 hPa 0,0 l/m 0 min 0 min 0 W/m 19,3 km/h (3 Bft) 100,00 %
01.03.2020 07:20 6,6 C 6,1 C 5,0 C 80 % 994,4 hPa 0,0 l/m 0 min 0 min 0 W/m 32,2 km/h (5 Bft) 100,00 %
01.03.2020 07:22 6,7 C 6,1 C 5,0 C 80 % 994,4 hPa 0,0 l/m 0 min 0 min 0 W/m 25,7 km/h (4 Bft) 93,62 %
01.03.2020 07:24 6,7 C 6,1 C 5,0 C 80 % 994,5 hPa 0,0 l/m 0 min 0 min 0 W/m 35,4 km/h (5 Bft) 97,87 %
01.03.2020 07:26 6,7 C 6,1 C 5,6 C 80 % 994,4 hPa 0,0 l/m 0 min 0 min 0 W/m 29,0 km/h (5 Bft) 97,87 %
01.03.2020 07:28 6,7 C 6,1 C 5,6 C 80 % 994,5 hPa 0,0 l/m 0 min 0 min 0 W/m 64,4 km/h (8 Bft) 100,00 %
01.03.2020 07:30 6,7 C 6,1 C 5,6 C 80 % 994,6 hPa 0,0 l/m 0 min 0 min 1 W/m 35,4 km/h (5 Bft) 97,83 %
01.03.2020 07:32 6,7 C 6,1 C 5,6 C 80 % 994,4 hPa 0,0 l/m 0 min 0 min 5 W/m 22,5 km/h (4 Bft) 97,87 %
01.03.2020 07:34 6,7 C 6,1 C 5,6 C 80 % 994,3 hPa 0,0 l/m 0 min 0 min 7 W/m 35,4 km/h (5 Bft) 95,74 %
01.03.2020 07:36 6,7 C 6,1 C 5,6 C 80 % 994,5 hPa 0,0 l/m 0 min 0 min 7 W/m 19,3 km/h (3 Bft) 95,74 %
01.03.2020 07:38 6,7 C 6,1 C 5,6 C 80 % 994,5 hPa 0,0 l/m 0 min 0 min 11 W/m 19,3 km/h (3 Bft) 97,87 %
01.03.2020 07:40 6,7 C 6,1 C 5,6 C 80 % 994,4 hPa 0,0 l/m 0 min 0 min 15 W/m 29,0 km/h (5 Bft) 97,87 %
01.03.2020 07:42 6,7 C 6,1 C 5,6 C 79 % 994,4 hPa 0,0 l/m 0 min 0 min 18 W/m 35,4 km/h (5 Bft) 95,65 %
01.03.2020 07:44 6,8 C 6,1 C 5,6 C 79 % 994,5 hPa 0,0 l/m 0 min 0 min 20 W/m 29,0 km/h (5 Bft) 95,74 %
01.03.2020 07:46 6,8 C 6,1 C 5,6 C 79 % 994,4 hPa 0,0 l/m 0 min 0 min 22 W/m 29,0 km/h (5 Bft) 95,74 %
01.03.2020 07:48 6,8 C 6,1 C 5,6 C 79 % 994,5 hPa 0,0 l/m 0 min 0 min 23 W/m 22,5 km/h (4 Bft) 95,74 %
01.03.2020 07:50 6,8 C 6,1 C 5,6 C 80 % 994,5 hPa 0,0 l/m 0 min 0 min 23 W/m 29,0 km/h (5 Bft) 95,74 %
01.03.2020 07:52 6,8 C 6,1 C 5,6 C 80 % 994,4 hPa 0,0 l/m 0 min 0 min 21 W/m 29,0 km/h (5 Bft) 93,48 %
01.03.2020 07:54 6,8 C 6,1 C 5,6 C 80 % 994,5 hPa 0,0 l/m 0 min 0 min 23 W/m 19,3 km/h (3 Bft) 95,74 %
01.03.2020 07:56 6,8 C 6,1 C 5,6 C 80 % 994,5 hPa 0,0 l/m 0 min 0 min 24 W/m 29,0 km/h (5 Bft) 95,74 %
01.03.2020 07:58 6,8 C 6,1 C 5,6 C 80 % 994,5 hPa 0,0 l/m 0 min 0 min 22 W/m 29,0 km/h (5 Bft) 95,74 %
01.03.2020 08:00 6,8 C 6,1 C 5,6 C 80 % 994,5 hPa 0,0 l/m 0 min 0 min 19 W/m 19,3 km/h (3 Bft) 95,74 %
01.03.2020 08:02 6,8 C 6,1 C 5,6 C 80 % 994,6 hPa 0,0 l/m 0 min 0 min 19 W/m 16,1 km/h (3 Bft) 95,74 %
01.03.2020 08:04 6,7 C 6,1 C 5,6 C 80 % 994,6 hPa 0,0 l/m 0 min 0 min 17 W/m 29,0 km/h (5 Bft) 95,65 %
01.03.2020 08:06 6,8 C 6,1 C 5,6 C 80 % 994,6 hPa 0,0 l/m 0 min 0 min 16 W/m 16,1 km/h (3 Bft) 93,62 %
01.03.2020 08:08 6,7 C 6,1 C 5,6 C 81 % 994,7 hPa 0,0 l/m 0 min 0 min 22 W/m 22,5 km/h (4 Bft) 95,74 %
01.03.2020 08:10 6,7 C 6,1 C 5,6 C 81 % 994,6 hPa 0,0 l/m 0 min 0 min 30 W/m 22,5 km/h (4 Bft) 93,62 %
01.03.2020 08:12 6,7 C 6,1 C 5,6 C 81 % 994,7 hPa 0,0 l/m 0 min 0 min 32 W/m 32,2 km/h (5 Bft) 93,62 %
01.03.2020 08:14 6,7 C 6,1 C 5,0 C 81 % 994,7 hPa 0,0 l/m 0 min 0 min 34 W/m 19,3 km/h (3 Bft) 91,49 %
01.03.2020 08:16 6,7 C 6,1 C 5,0 C 82 % 994,7 hPa 0,0 l/m 0 min 0 min 40 W/m 19,3 km/h (3 Bft) 95,12 %
01.03.2020 08:18 6,7 C 6,1 C 5,0 C 82 % 994,6 hPa 0,0 l/m 0 min 0 min 40 W/m 32,2 km/h (5 Bft) 93,75 %
01.03.2020 08:20 6,6 C 6,1 C 5,0 C 82 % 994,6 hPa 0,0 l/m 0 min 0 min 40 W/m 22,5 km/h (4 Bft) 93,48 %
01.03.2020 08:22 6,6 C 6,1 C 5,0 C 82 % 994,6 hPa 0,0 l/m 0 min 0 min 44 W/m 25,7 km/h (4 Bft) 93,62 %
01.03.2020 08:24 6,6 C 6,1 C 5,0 C 82 % 994,6 hPa 0,0 l/m 0 min 0 min 42 W/m 19,3 km/h (3 Bft) 91,67 %
01.03.2020 08:26 6,6 C 6,1 C 5,0 C 83 % 994,6 hPa 0,0 l/m 0 min 0 min 43 W/m 16,1 km/h (3 Bft) 93,75 %
01.03.2020 08:28 6,5 C 6,1 C 5,0 C 83 % 994,6 hPa 0,0 l/m 0 min 0 min 40 W/m 16,1 km/h (3 Bft) 91,67 %
01.03.2020 08:30 6,5 C 5,6 C 5,0 C 83 % 994,6 hPa 0,0 l/m 0 min 0 min 39 W/m 22,5 km/h (4 Bft) 95,65 %
01.03.2020 08:32 6,5 C 5,6 C 5,0 C 83 % 994,7 hPa 0,0 l/m 0 min 0 min 39 W/m 22,5 km/h (4 Bft) 93,75 %
01.03.2020 08:34 6,4 C 5,6 C 5,0 C 83 % 994,7 hPa 0,0 l/m 0 min 0 min 40 W/m 16,1 km/h (3 Bft) 97,92 %
01.03.2020 08:36 6,4 C 5,6 C 5,0 C 83 % 994,6 hPa 0,0 l/m 0 min 0 min 39 W/m 16,1 km/h (3 Bft) 97,87 %
01.03.2020 08:38 6,4 C 5,6 C 5,0 C 83 % 994,7 hPa 0,0 l/m 0 min 0 min 39 W/m 19,3 km/h (3 Bft) 95,65 %
01.03.2020 08:40 6,4 C 5,6 C 5,0 C 83 % 994,6 hPa 0,0 l/m 0 min 0 min 39 W/m 25,7 km/h (4 Bft) 97,87 %
01.03.2020 08:42 6,3 C 5,6 C 5,0 C 84 % 994,6 hPa 0,0 l/m 0 min 0 min 42 W/m 22,5 km/h (4 Bft) 97,87 %
01.03.2020 08:44 6,3 C 5,6 C 5,0 C 84 % 994,6 hPa 0,0 l/m 0 min 0 min 48 W/m 29,0 km/h (5 Bft) 97,87 %
01.03.2020 08:46 6,3 C 5,6 C 5,0 C 84 % 994,6 hPa 0,0 l/m 0 min 0 min 67 W/m 32,2 km/h (5 Bft) 97,56 %
01.03.2020 08:48 6,3 C 6,1 C 5,0 C 84 % 994,5 hPa 0,0 l/m 0 min 0 min 76 W/m 29,0 km/h (5 Bft) 93,75 %
01.03.2020 08:50 6,3 C 6,1 C 5,0 C 84 % 994,6 hPa 0,0 l/m 0 min 0 min 79 W/m 22,5 km/h (4 Bft) 95,83 %
01.03.2020 08:52 6,3 C 6,1 C 5,6 C 84 % 994,5 hPa 0,0 l/m 0 min 0 min 80 W/m 25,7 km/h (4 Bft) 97,92 %
01.03.2020 08:54 6,3 C 6,1 C 5,6 C 84 % 994,5 hPa 0,0 l/m 0 min 0 min 80 W/m 19,3 km/h (3 Bft) 97,87 %
01.03.2020 08:56 6,3 C 6,1 C 5,6 C 84 % 994,5 hPa 0,0 l/m 0 min 0 min 82 W/m 25,7 km/h (4 Bft) 95,83 %
01.03.2020 08:58 6,3 C 6,1 C 5,6 C 84 % 994,5 hPa 0,0 l/m 0 min 0 min 82 W/m 25,7 km/h (4 Bft) 100,00 %
01.03.2020 09:00 6,3 C 6,1 C 5,6 C 84 % 994,5 hPa 0,0 l/m 0 min 0 min 78 W/m 22,5 km/h (4 Bft) 97,87 %
01.03.2020 09:02 6,3 C 6,1 C 5,6 C 84 % 994,5 hPa 0,0 l/m 0 min 0 min 73 W/m 25,7 km/h (4 Bft) 97,83 %
01.03.2020 09:04 6,3 C 6,1 C 5,6 C 84 % 994,6 hPa 0,0 l/m 0 min 0 min 84 W/m 22,5 km/h (4 Bft) 100,00 %
01.03.2020 09:06 6,3 C 6,1 C 5,6 C 84 % 994,6 hPa 0,0 l/m 0 min 0 min 98 W/m 32,2 km/h (5 Bft) 100,00 %
01.03.2020 09:08 6,4 C 6,7 C 5,6 C 84 % 994,7 hPa 0,0 l/m 0 min 0 min 121 W/m 25,7 km/h (4 Bft) 97,92 %
01.03.2020 09:10 6,4 C 6,7 C 6,1 C 84 % 994,6 hPa 0,0 l/m 2 min 0 min 146 W/m 19,3 km/h (3 Bft) 100,00 %
01.03.2020 09:12 6,5 C 6,7 C 6,1 C 84 % 994,6 hPa 0,0 l/m 2 min 0 min 159 W/m 35,4 km/h (5 Bft) 100,00 %
01.03.2020 09:14 6,5 C 6,7 C 6,1 C 84 % 994,7 hPa 0,0 l/m 2 min 0 min 161 W/m 35,4 km/h (5 Bft) 100,00 %
01.03.2020 09:16 6,5 C 6,7 C 6,1 C 84 % 994,7 hPa 0,0 l/m 0 min 0 min 137 W/m 32,2 km/h (5 Bft) 100,00 %
01.03.2020 09:18 6,6 C 6,7 C 6,1 C 84 % 994,7 hPa 0,0 l/m 0 min 0 min 105 W/m 19,3 km/h (3 Bft) 100,00 %
01.03.2020 09:20 6,6 C 6,7 C 6,1 C 84 % 994,7 hPa 0,0 l/m 0 min 0 min 103 W/m 25,7 km/h (4 Bft) 100,00 %
01.03.2020 09:22 6,6 C 6,7 C 6,1 C 84 % 994,7 hPa 0,0 l/m 0 min 0 min 119 W/m 22,5 km/h (4 Bft) 100,00 %
01.03.2020 09:24 6,7 C 7,2 C 6,1 C 84 % 994,7 hPa 0,0 l/m 0 min 0 min 123 W/m 22,5 km/h (4 Bft) 100,00 %
01.03.2020 09:26 6,7 C 7,2 C 6,1 C 83 % 994,7 hPa 0,0 l/m 0 min 0 min 130 W/m 29,0 km/h (5 Bft) 100,00 %
01.03.2020 09:28 6,8 C 8,3 C 6,1 C 83 % 994,8 hPa 0,0 l/m 2 min 0 min 167 W/m 25,7 km/h (4 Bft) 100,00 %
01.03.2020 09:30 6,8 C 8,3 C 6,7 C 83 % 994,8 hPa 0,0 l/m 2 min 0 min 218 W/m 38,6 km/h (5 Bft) 100,00 %
01.03.2020 09:32 6,9 C 7,8 C 6,7 C 82 % 994,9 hPa 0,0 l/m 2 min 0 min 230 W/m 45,1 km/h (6 Bft) 100,00 %
01.03.2020 09:34 6,9 C 8,3 C 7,2 C 82 % 994,9 hPa 0,0 l/m 2 min 0 min 256 W/m 35,4 km/h (5 Bft) 100,00 %
01.03.2020 09:36 7,1 C 9,4 C 8,3 C 81 % 994,9 hPa 0,0 l/m 2 min 0 min 326 W/m 38,6 km/h (5 Bft) 97,92 %
01.03.2020 09:38 7,1 C 8,9 C 8,3 C 81 % 994,8 hPa 0,0 l/m 2 min 0 min 297 W/m 32,2 km/h (5 Bft) 100,00 %
01.03.2020 09:40 7,2 C 9,4 C 8,3 C 81 % 994,9 hPa 0,0 l/m 2 min 0 min 278 W/m 35,4 km/h (5 Bft) 100,00 %
01.03.2020 09:42 7,3 C 9,4 C 7,8 C 81 % 994,9 hPa 0,0 l/m 2 min 0 min 267 W/m 29,0 km/h (5 Bft) 100,00 %
01.03.2020 09:44 7,4 C 9,4 C 7,2 C 81 % 994,8 hPa 0,0 l/m 2 min 0 min 292 W/m 38,6 km/h (5 Bft) 100,00 %
01.03.2020 09:46 7,5 C 10,0 C 7,2 C 80 % 994,9 hPa 0,0 l/m 2 min 0 min 350 W/m 51,5 km/h (7 Bft) 100,00 %
01.03.2020 09:48 7,6 C 10,0 C 7,2 C 80 % 994,9 hPa 0,0 l/m 2 min 0 min 350 W/m 32,2 km/h (5 Bft) 100,00 %
01.03.2020 09:50 7,7 C 8,9 C 7,2 C 80 % 994,9 hPa 0,0 l/m 2 min 0 min 185 W/m 25,7 km/h (4 Bft) 100,00 %
01.03.2020 09:52 7,7 C 8,3 C 7,2 C 79 % 995,0 hPa 0,0 l/m 0 min 0 min 149 W/m 29,0 km/h (5 Bft) 97,87 %
01.03.2020 09:54 7,7 C 8,3 C 7,2 C 79 % 995,1 hPa 0,0 l/m 0 min 0 min 167 W/m 38,6 km/h (5 Bft) 100,00 %
01.03.2020 09:56 7,7 C 7,8 C 6,7 C 79 % 995,2 hPa 0,0 l/m 0 min 0 min 153 W/m 35,4 km/h (5 Bft) 100,00 %
01.03.2020 09:58 7,8 C 8,3 C 7,2 C 79 % 995,1 hPa 0,0 l/m 2 min 0 min 198 W/m 32,2 km/h (5 Bft) 98,00 %
01.03.2020 10:00 7,8 C 8,3 C 7,2 C 79 % 995,0 hPa 0,0 l/m 2 min 0 min 195 W/m 22,5 km/h (4 Bft) 100,00 %
01.03.2020 10:02 7,8 C 7,8 C 7,2 C 79 % 995,0 hPa 0,0 l/m 0 min 0 min 163 W/m 41,8 km/h (6 Bft) 100,00 %
01.03.2020 10:04 7,8 C 8,3 C 7,2 C 78 % 995,1 hPa 0,0 l/m 2 min 0 min 221 W/m 22,5 km/h (4 Bft) 100,00 %
01.03.2020 10:06 7,8 C 7,8 C 7,2 C 78 % 995,7 hPa 0,0 l/m 2 min 0 min 190 W/m 48,3 km/h (6 Bft) 100,00 %
01.03.2020 10:08 7,8 C 7,8 C 7,2 C 78 % 995,0 hPa 0,0 l/m 0 min 0 min 159 W/m 48,3 km/h (6 Bft) 100,00 %
01.03.2020 10:10 7,8 C 7,8 C 7,2 C 78 % 995,1 hPa 0,0 l/m 0 min 0 min 163 W/m 35,4 km/h (5 Bft) 100,00 %
01.03.2020 10:12 7,8 C 8,3 C 7,2 C 78 % 995,1 hPa 0,0 l/m 0 min 0 min 179 W/m 29,0 km/h (5 Bft) 100,00 %
01.03.2020 10:14 7,8 C 7,8 C 6,7 C 78 % 995,1 hPa 0,0 l/m 0 min 0 min 128 W/m 38,6 km/h (5 Bft) 100,00 %
01.03.2020 10:16 7,8 C 7,2 C 6,7 C 78 % 995,2 hPa 0,0 l/m 0 min 0 min 98 W/m 57,9 km/h (7 Bft) 100,00 %
01.03.2020 10:18 7,8 C 7,2 C 6,7 C 78 % 995,2 hPa 0,0 l/m 0 min 0 min 112 W/m 35,4 km/h (5 Bft) 100,00 %
01.03.2020 10:20 7,8 C 7,2 C 6,7 C 78 % 995,2 hPa 0,0 l/m 0 min 0 min 129 W/m 32,2 km/h (5 Bft) 100,00 %
01.03.2020 10:22 7,7 C 7,2 C 6,7 C 78 % 995,2 hPa 0,0 l/m 0 min 0 min 145 W/m 25,7 km/h (4 Bft) 100,00 %
01.03.2020 10:24 7,7 C 7,8 C 6,7 C 79 % 995,2 hPa 0,0 l/m 0 min 0 min 149 W/m 25,7 km/h (4 Bft) 100,00 %
01.03.2020 10:26 7,7 C 7,8 C 7,2 C 79 % 995,3 hPa 0,0 l/m 0 min 0 min 151 W/m 25,7 km/h (4 Bft) 100,00 %
01.03.2020 10:28 7,7 C 7,8 C 7,2 C 79 % 995,3 hPa 0,0 l/m 0 min 0 min 178 W/m 32,2 km/h (5 Bft) 97,92 %
01.03.2020 10:30 7,7 C 7,8 C 7,2 C 79 % 995,3 hPa 0,0 l/m 0 min 0 min 179 W/m 41,8 km/h (6 Bft) 97,87 %
01.03.2020 10:32 7,7 C 8,3 C 7,2 C 78 % 995,2 hPa 0,0 l/m 0 min 0 min 207 W/m 32,2 km/h (5 Bft) 97,87 %
01.03.2020 10:34 7,7 C 8,9 C 7,2 C 79 % 995,2 hPa 0,0 l/m 2 min 0 min 251 W/m 16,1 km/h (3 Bft) 97,87 %
01.03.2020 10:36 7,8 C 9,4 C 7,2 C 79 % 995,2 hPa 0,0 l/m 2 min 0 min 278 W/m 25,7 km/h (4 Bft) 97,83 %
01.03.2020 10:38 7,8 C 9,4 C 7,2 C 79 % 995,2 hPa 0,0 l/m 2 min 0 min 240 W/m 35,4 km/h (5 Bft) 97,87 %
01.03.2020 10:40 7,8 C 9,4 C 7,2 C 78 % 995,2 hPa 0,0 l/m 2 min 0 min 381 W/m 32,2 km/h (5 Bft) 97,56 %
01.03.2020 10:42 7,9 C 10,6 C 7,2 C 78 % 995,2 hPa 0,0 l/m 2 min 0 min 452 W/m 41,8 km/h (6 Bft) 97,92 %
01.03.2020 10:44 8,0 C 10,6 C 7,8 C 78 % 995,2 hPa 0,0 l/m 2 min 0 min 543 W/m 29,0 km/h (5 Bft) 97,92 %
01.03.2020 10:46 8,1 C 10,0 C 7,8 C 78 % 995,2 hPa 0,0 l/m 2 min 0 min 316 W/m 32,2 km/h (5 Bft) 95,83 %
01.03.2020 10:48 8,2 C 8,9 C 7,8 C 77 % 995,2 hPa 0,0 l/m 0 min 0 min 212 W/m 22,5 km/h (4 Bft) 89,58 %
01.03.2020 10:50 8,2 C 8,9 C 7,8 C 77 % 995,2 hPa 0,0 l/m 0 min 0 min 169 W/m 22,5 km/h (4 Bft) 91,30 %
01.03.2020 10:52 8,2 C 8,9 C 7,8 C 77 % 995,2 hPa 0,0 l/m 2 min 0 min 260 W/m 32,2 km/h (5 Bft) 93,75 %
01.03.2020 10:54 8,2 C 8,3 C 7,8 C 77 % 995,3 hPa 0,0 l/m 2 min 0 min 231 W/m 45,1 km/h (6 Bft) 91,67 %
01.03.2020 10:56 8,2 C 8,3 C 7,2 C 75 % 995,3 hPa 0,0 l/m 2 min 0 min 227 W/m 41,8 km/h (6 Bft) 91,49 %
01.03.2020 10:58 8,2 C 9,4 C 7,8 C 76 % 995,3 hPa 0,0 l/m 2 min 0 min 342 W/m 38,6 km/h (5 Bft) 91,30 %
01.03.2020 11:00 8,3 C 10,0 C 7,8 C 76 % 995,3 hPa 0,0 l/m 2 min 0 min 536 W/m 29,0 km/h (5 Bft) 93,62 %
01.03.2020 11:02 8,3 C 8,9 C 7,8 C 76 % 995,3 hPa 0,0 l/m 2 min 0 min 328 W/m 41,8 km/h (6 Bft) 90,70 %
01.03.2020 11:04 8,3 C 9,4 C 7,8 C 75 % 995,2 hPa 0,0 l/m 0 min 0 min 224 W/m 57,9 km/h (7 Bft) 93,62 %
01.03.2020 11:06 8,3 C 8,3 C 7,8 C 75 % 995,3 hPa 0,0 l/m 0 min 0 min 178 W/m 45,1 km/h (6 Bft) 91,67 %
01.03.2020 11:08 8,3 C 9,4 C 7,8 C 75 % 995,3 hPa 0,0 l/m 0 min 0 min 185 W/m 57,9 km/h (7 Bft) 91,49 %
01.03.2020 11:10 8,3 C 10,6 C 7,8 C 74 % 995,3 hPa 0,0 l/m 0 min 0 min 185 W/m 51,5 km/h (7 Bft) 93,62 %
01.03.2020 11:12 8,3 C 10,6 C 7,8 C 74 % 995,2 hPa 0,0 l/m 0 min 0 min 185 W/m 32,2 km/h (5 Bft) 91,67 %
01.03.2020 11:14 8,4 C 8,9 C 7,8 C 74 % 995,2 hPa 0,0 l/m 0 min 0 min 191 W/m 48,3 km/h (6 Bft) 95,74 %
01.03.2020 11:16 8,4 C 9,4 C 7,8 C 74 % 995,2 hPa 0,0 l/m 0 min 0 min 206 W/m 35,4 km/h (5 Bft) 93,75 %
01.03.2020 11:18 8,4 C 8,9 C 7,8 C 74 % 995,2 hPa 0,0 l/m 0 min 0 min 192 W/m 32,2 km/h (5 Bft) 93,62 %
01.03.2020 11:20 8,4 C 9,4 C 7,8 C 74 % 995,1 hPa 0,0 l/m 0 min 0 min 173 W/m 22,5 km/h (4 Bft) 95,74 %
01.03.2020 11:22 8,4 C 9,4 C 7,8 C 74 % 995,2 hPa 0,0 l/m 0 min 0 min 212 W/m 57,9 km/h (7 Bft) 93,48 %
01.03.2020 11:24 8,4 C 10,6 C 8,3 C 74 % 995,2 hPa 0,0 l/m 2 min 0 min 328 W/m 35,4 km/h (5 Bft) 91,49 %
01.03.2020 11:26 8,5 C 10,6 C 8,3 C 74 % 995,2 hPa 0,0 l/m 2 min 0 min 336 W/m 32,2 km/h (5 Bft) 93,62 %
01.03.2020 11:28 8,6 C 12,2 C 8,9 C 74 % 995,1 hPa 0,0 l/m 2 min 0 min 311 W/m 22,5 km/h (4 Bft) 95,12 %
01.03.2020 11:30 8,7 C 14,4 C 9,4 C 75 % 995,2 hPa 0,0 l/m 2 min 0 min 501 W/m 16,1 km/h (3 Bft) 91,67 %
01.03.2020 11:32 8,9 C 13,9 C 9,4 C 75 % 995,0 hPa 0,0 l/m 2 min 0 min 503 W/m 32,2 km/h (5 Bft) 93,75 %
01.03.2020 11:34 9,1 C 11,7 C 9,4 C 74 % 995,0 hPa 0,0 l/m 2 min 0 min 524 W/m 32,2 km/h (5 Bft) 95,83 %
01.03.2020 11:36 9,2 C 10,6 C 8,9 C 73 % 995,1 hPa 0,0 l/m 0 min 0 min 239 W/m 29,0 km/h (5 Bft) 95,74 %
01.03.2020 11:38 9,2 C 10,0 C 8,3 C 72 % 995,1 hPa 0,0 l/m 0 min 0 min 213 W/m 38,6 km/h (5 Bft) 95,83 %
01.03.2020 11:40 9,2 C 9,4 C 8,3 C 72 % 995,3 hPa 0,0 l/m 0 min 0 min 200 W/m 32,2 km/h (5 Bft) 97,92 %
01.03.2020 11:42 9,2 C 9,4 C 8,3 C 72 % 995,1 hPa 0,0 l/m 2 min 0 min 250 W/m 29,0 km/h (5 Bft) 95,74 %
01.03.2020 11:44 9,1 C 9,4 C 8,3 C 72 % 995,1 hPa 0,0 l/m 0 min 0 min 247 W/m 38,6 km/h (5 Bft) 97,87 %
01.03.2020 11:46 9,1 C 10,6 C 8,9 C 72 % 995,1 hPa 0,0 l/m 2 min 0 min 349 W/m 32,2 km/h (5 Bft) 97,83 %
01.03.2020 11:48 9,1 C 10,0 C 8,9 C 72 % 995,2 hPa 0,0 l/m 2 min 0 min 326 W/m 25,7 km/h (4 Bft) 97,87 %
01.03.2020 11:50 9,2 C 10,0 C 8,3 C 72 % 995,2 hPa 0,0 l/m 0 min 0 min 172 W/m 29,0 km/h (5 Bft) 95,74 %
01.03.2020 11:52 9,2 C 10,0 C 8,3 C 72 % 995,3 hPa 0,0 l/m 0 min 0 min 185 W/m 29,0 km/h (5 Bft) 97,56 %
01.03.2020 11:54 9,1 C 8,9 C 8,3 C 71 % 995,2 hPa 0,0 l/m 0 min 0 min 201 W/m 38,6 km/h (5 Bft) 97,92 %
01.03.2020 11:56 9,1 C 9,4 C 8,3 C 70 % 995,3 hPa 0,0 l/m 0 min 0 min 203 W/m 38,6 km/h (5 Bft) 95,83 %
01.03.2020 11:58 9,1 C 10,6 C 8,3 C 71 % 995,3 hPa 0,0 l/m 2 min 0 min 408 W/m 29,0 km/h (5 Bft) 98,00 %
01.03.2020 12:00 9,0 C 10,0 C 8,3 C 71 % 995,3 hPa 0,0 l/m 0 min 0 min 252 W/m 51,5 km/h (7 Bft) 100,00 %
01.03.2020 12:02 9,0 C 10,0 C 8,3 C 70 % 995,1 hPa 0,0 l/m 2 min 0 min 278 W/m 51,5 km/h (7 Bft) 100,00 %
01.03.2020 12:04 9,0 C 10,6 C 8,9 C 71 % 995,1 hPa 0,0 l/m 2 min 0 min 297 W/m 25,7 km/h (4 Bft) 100,00 %
01.03.2020 12:06 9,1 C 10,0 C 8,3 C 70 % 995,3 hPa 0,0 l/m 2 min 0 min 286 W/m 41,8 km/h (6 Bft) 100,00 %
01.03.2020 12:08 9,1 C 12,8 C 8,9 C 71 % 995,2 hPa 0,0 l/m 2 min 0 min 394 W/m 29,0 km/h (5 Bft) 100,00 %
01.03.2020 12:10 9,2 C 14,4 C 9,4 C 72 % 995,2 hPa 0,0 l/m 2 min 0 min 686 W/m 16,1 km/h (3 Bft) 100,00 %
01.03.2020 12:12 9,3 C 12,2 C 8,9 C 72 % 995,2 hPa 0,0 l/m 2 min 0 min 610 W/m 41,8 km/h (6 Bft) 100,00 %
01.03.2020 12:14 9,4 C 12,8 C 8,9 C 71 % 995,2 hPa 0,0 l/m 2 min 0 min 278 W/m 19,3 km/h (3 Bft) 100,00 %
01.03.2020 12:16 9,5 C 11,7 C 8,9 C 72 % 995,1 hPa 0,0 l/m 2 min 0 min 613 W/m 29,0 km/h (5 Bft) 100,00 %
01.03.2020 12:18 9,6 C 12,2 C 8,9 C 71 % 995,1 hPa 0,0 l/m 2 min 0 min 643 W/m 25,7 km/h (4 Bft) 100,00 %
01.03.2020 12:20 9,6 C 12,2 C 8,9 C 70 % 995,1 hPa 0,0 l/m 2 min 0 min 643 W/m 25,7 km/h (4 Bft) 100,00 %
01.03.2020 12:22 9,7 C 13,9 C 8,9 C 70 % 995,1 hPa 0,0 l/m 2 min 0 min 652 W/m 22,5 km/h (4 Bft) 97,87 %
01.03.2020 12:24 9,7 C 13,9 C 9,4 C 70 % 995,0 hPa 0,0 l/m 2 min 0 min 633 W/m 25,7 km/h (4 Bft) 100,00 %
01.03.2020 12:26 9,8 C 14,4 C 9,4 C 70 % 995,0 hPa 0,0 l/m 2 min 0 min 699 W/m 19,3 km/h (3 Bft) 100,00 %
01.03.2020 12:28 9,9 C 12,2 C 9,4 C 70 % 995,1 hPa 0,0 l/m 2 min 0 min 461 W/m 25,7 km/h (4 Bft) 100,00 %
01.03.2020 12:30 9,9 C 11,1 C 9,4 C 69 % 995,0 hPa 0,0 l/m 0 min 0 min 255 W/m 29,0 km/h (5 Bft) 100,00 %
01.03.2020 12:32 9,9 C 11,1 C 9,4 C 68 % 995,1 hPa 0,0 l/m 2 min 0 min 298 W/m 35,4 km/h (5 Bft) 97,92 %
01.03.2020 12:34 9,9 C 10,6 C 9,4 C 69 % 995,0 hPa 0,0 l/m 2 min 0 min 279 W/m 22,5 km/h (4 Bft) 100,00 %
01.03.2020 12:36 9,9 C 11,1 C 9,4 C 69 % 995,2 hPa 0,0 l/m 2 min 0 min 297 W/m 25,7 km/h (4 Bft) 95,74 %
01.03.2020 12:38 9,9 C 12,2 C 10,0 C 69 % 995,0 hPa 0,0 l/m 2 min 0 min 347 W/m 41,8 km/h (6 Bft) 100,00 %
01.03.2020 12:40 9,9 C 12,2 C 10,0 C 69 % 995,0 hPa 0,0 l/m 2 min 0 min 408 W/m 22,5 km/h (4 Bft) 100,00 %
01.03.2020 12:42 10,0 C 11,1 C 10,0 C 69 % 995,0 hPa 0,0 l/m 0 min 0 min 246 W/m 35,4 km/h (5 Bft) 100,00 %
01.03.2020 12:44 9,9 C 10,0 C 9,4 C 67 % 995,0 hPa 0,0 l/m 0 min 0 min 235 W/m 41,8 km/h (6 Bft) 97,87 %
01.03.2020 12:46 9,9 C 11,1 C 10,0 C 66 % 995,0 hPa 0,0 l/m 0 min 0 min 218 W/m 48,3 km/h (6 Bft) 100,00 %
01.03.2020 12:48 9,9 C 11,7 C 11,1 C 66 % 995,0 hPa 0,0 l/m 2 min 0 min 577 W/m 41,8 km/h (6 Bft) 100,00 %
01.03.2020 12:50 9,9 C 10,6 C 10,0 C 67 % 994,9 hPa 0,0 l/m 2 min 0 min 305 W/m 25,7 km/h (4 Bft) 100,00 %
01.03.2020 12:52 9,8 C 10,6 C 9,4 C 67 % 995,1 hPa 0,0 l/m 0 min 0 min 247 W/m 25,7 km/h (4 Bft) 100,00 %
01.03.2020 12:54 9,8 C 10,0 C 9,4 C 68 % 994,9 hPa 0,0 l/m 0 min 0 min 242 W/m 35,4 km/h (5 Bft) 100,00 %
01.03.2020 12:56 9,8 C 10,0 C 9,4 C 68 % 995,0 hPa 0,0 l/m 0 min 0 min 242 W/m 25,7 km/h (4 Bft) 100,00 %
01.03.2020 12:58 9,8 C 12,2 C 11,1 C 68 % 995,0 hPa 0,0 l/m 2 min 0 min 352 W/m 38,6 km/h (5 Bft) 100,00 %
01.03.2020 13:00 9,8 C 11,1 C 10,6 C 67 % 994,9 hPa 0,0 l/m 2 min 0 min 689 W/m 38,6 km/h (5 Bft) 97,87 %
01.03.2020 13:02 9,8 C 10,6 C 10,0 C 68 % 995,0 hPa 0,0 l/m 2 min 0 min 284 W/m 32,2 km/h (5 Bft) 100,00 %
01.03.2020 13:04 9,8 C 11,1 C 10,0 C 68 % 995,0 hPa 0,0 l/m 0 min 0 min 253 W/m 35,4 km/h (5 Bft) 97,67 %
01.03.2020 13:06 9,8 C 10,6 C 10,0 C 68 % 995,0 hPa 0,0 l/m 2 min 0 min 272 W/m 22,5 km/h (4 Bft) 97,87 %
01.03.2020 13:08 9,8 C 10,6 C 10,0 C 68 % 995,0 hPa 0,0 l/m 2 min 0 min 267 W/m 29,0 km/h (5 Bft) 97,92 %
01.03.2020 13:10 9,8 C 10,0 C 9,4 C 68 % 995,1 hPa 0,0 l/m 2 min 0 min 289 W/m 45,1 km/h (6 Bft) 95,74 %
01.03.2020 13:12 9,8 C 10,0 C 9,4 C 66 % 994,9 hPa 0,0 l/m 0 min 0 min 204 W/m 54,7 km/h (7 Bft) 97,87 %
01.03.2020 13:14 9,8 C 10,0 C 9,4 C 68 % 994,9 hPa 0,0 l/m 0 min 0 min 194 W/m 22,5 km/h (4 Bft) 97,92 %
01.03.2020 13:16 9,8 C 9,4 C 8,9 C 68 % 994,9 hPa 0,0 l/m 0 min 0 min 149 W/m 19,3 km/h (3 Bft) 97,92 %
01.03.2020 13:18 9,8 C 9,4 C 8,9 C 68 % 994,9 hPa 0,0 l/m 0 min 0 min 162 W/m 32,2 km/h (5 Bft) 97,83 %
01.03.2020 13:20 9,7 C 10,0 C 8,9 C 68 % 994,8 hPa 0,0 l/m 0 min 0 min 203 W/m 25,7 km/h (4 Bft) 97,87 %
01.03.2020 13:22 9,7 C 10,0 C 8,9 C 68 % 994,8 hPa 0,0 l/m 0 min 0 min 185 W/m 12,9 km/h (3 Bft) 95,74 %
01.03.2020 13:24 9,7 C 10,0 C 8,9 C 68 % 994,8 hPa 0,0 l/m 0 min 0 min 171 W/m 38,6 km/h (5 Bft) 95,74 %
01.03.2020 13:26 9,7 C 10,0 C 8,9 C 68 % 994,8 hPa 0,0 l/m 0 min 0 min 193 W/m 32,2 km/h (5 Bft) 91,49 %
01.03.2020 13:28 9,7 C 10,0 C 8,9 C 67 % 994,8 hPa 0,0 l/m 0 min 0 min 242 W/m 35,4 km/h (5 Bft) 95,12 %
01.03.2020 13:30 9,7 C 11,1 C 9,4 C 66 % 994,7 hPa 0,0 l/m 2 min 0 min 306 W/m 61,2 km/h (7 Bft) 97,92 %
01.03.2020 13:32 9,8 C 12,2 C 10,0 C 66 % 994,7 hPa 0,0 l/m 2 min 0 min 524 W/m 38,6 km/h (5 Bft) 97,92 %
01.03.2020 13:34 9,8 C 11,7 C 10,0 C 67 % 994,8 hPa 0,0 l/m 2 min 0 min 456 W/m 25,7 km/h (4 Bft) 93,62 %
01.03.2020 13:36 9,9 C 11,1 C 10,0 C 67 % 994,7 hPa 0,0 l/m 2 min 0 min 273 W/m 35,4 km/h (5 Bft) 93,75 %
01.03.2020 13:38 10,0 C 11,7 C 10,0 C 67 % 994,6 hPa 0,0 l/m 2 min 0 min 302 W/m 32,2 km/h (5 Bft) 95,83 %
01.03.2020 13:40 10,0 C 11,1 C 9,4 C 66 % 994,6 hPa 0,0 l/m 2 min 0 min 296 W/m 54,7 km/h (7 Bft) 93,75 %
01.03.2020 13:42 10,1 C 11,7 C 9,4 C 66 % 994,6 hPa 0,0 l/m 2 min 0 min 328 W/m 38,6 km/h (5 Bft) 95,65 %
01.03.2020 13:44 10,1 C 11,1 C 9,4 C 66 % 994,5 hPa 0,0 l/m 2 min 0 min 280 W/m 35,4 km/h (5 Bft) 91,49 %
01.03.2020 13:46 10,1 C 12,2 C 9,4 C 67 % 994,6 hPa 0,0 l/m 0 min 0 min 200 W/m 25,7 km/h (4 Bft) 93,62 %
01.03.2020 13:48 10,1 C 13,3 C 10,0 C 67 % 994,5 hPa 0,0 l/m 2 min 0 min 610 W/m 25,7 km/h (4 Bft) 97,87 %
01.03.2020 13:50 10,2 C 12,8 C 9,4 C 67 % 994,5 hPa 0,0 l/m 2 min 0 min 455 W/m 35,4 km/h (5 Bft) 97,87 %
01.03.2020 13:52 10,2 C 13,3 C 9,4 C 66 % 994,5 hPa 0,0 l/m 2 min 0 min 423 W/m 29,0 km/h (5 Bft) 97,56 %
01.03.2020 13:54 10,3 C 13,9 C 10,0 C 67 % 994,5 hPa 0,0 l/m 2 min 0 min 521 W/m 19,3 km/h (3 Bft) 97,92 %
01.03.2020 13:56 10,4 C 13,3 C 10,0 C 67 % 994,4 hPa 0,0 l/m 2 min 0 min 489 W/m 29,0 km/h (5 Bft) 95,74 %
01.03.2020 13:58 10,4 C 12,2 C 9,4 C 66 % 994,4 hPa 0,0 l/m 2 min 0 min 398 W/m 45,1 km/h (6 Bft) 98,00 %
01.03.2020 14:00 10,4 C 12,2 C 9,4 C 65 % 994,4 hPa 0,0 l/m 2 min 0 min 404 W/m 35,4 km/h (5 Bft) 97,92 %
01.03.2020 14:02 10,4 C 12,2 C 9,4 C 65 % 994,5 hPa 0,0 l/m 2 min 0 min 402 W/m 25,7 km/h (4 Bft) 97,87 %
01.03.2020 14:04 10,4 C 11,7 C 9,4 C 65 % 994,6 hPa 0,0 l/m 2 min 0 min 364 W/m 41,8 km/h (6 Bft) 97,56 %
01.03.2020 14:06 10,4 C 11,7 C 9,4 C 65 % 994,4 hPa 0,0 l/m 2 min 0 min 356 W/m 22,5 km/h (4 Bft) 97,92 %
01.03.2020 14:08 10,4 C 11,7 C 10,0 C 66 % 994,4 hPa 0,0 l/m 2 min 0 min 311 W/m 16,1 km/h (3 Bft) 97,87 %
01.03.2020 14:10 10,4 C 12,2 C 10,0 C 66 % 994,5 hPa 0,0 l/m 2 min 0 min 299 W/m 25,7 km/h (4 Bft) 97,92 %
01.03.2020 14:12 10,4 C 11,1 C 9,4 C 64 % 994,5 hPa 0,0 l/m 2 min 0 min 270 W/m 41,8 km/h (6 Bft) 97,92 %
01.03.2020 14:14 10,4 C 10,6 C 9,4 C 64 % 994,4 hPa 0,0 l/m 0 min 0 min 227 W/m 41,8 km/h (6 Bft) 95,83 %
01.03.2020 14:16 10,4 C 10,6 C 9,4 C 65 % 994,4 hPa 0,0 l/m 0 min 0 min 236 W/m 19,3 km/h (3 Bft) 95,74 %
01.03.2020 14:18 10,3 C 10,6 C 9,4 C 64 % 994,4 hPa 0,0 l/m 0 min 0 min 219 W/m 38,6 km/h (5 Bft) 97,87 %
01.03.2020 14:20 10,3 C 10,6 C 9,4 C 64 % 994,3 hPa 0,0 l/m 0 min 0 min 224 W/m 45,1 km/h (6 Bft) 100,00 %
01.03.2020 14:22 10,3 C 10,6 C 9,4 C 64 % 994,3 hPa 0,0 l/m 2 min 0 min 252 W/m 29,0 km/h (5 Bft) 100,00 %
01.03.2020 14:24 10,2 C 10,6 C 9,4 C 64 % 994,3 hPa 0,0 l/m 2 min 0 min 245 W/m 32,2 km/h (5 Bft) 100,00 %
01.03.2020 14:26 10,2 C 10,6 C 9,4 C 64 % 994,3 hPa 0,0 l/m 0 min 0 min 224 W/m 29,0 km/h (5 Bft) 100,00 %
01.03.2020 14:28 10,2 C 10,6 C 9,4 C 64 % 994,3 hPa 0,0 l/m 2 min 0 min 267 W/m 25,7 km/h (4 Bft) 97,56 %
01.03.2020 14:30 10,2 C 11,1 C 10,0 C 65 % 994,4 hPa 0,0 l/m 2 min 0 min 254 W/m 22,5 km/h (4 Bft) 97,92 %
01.03.2020 14:32 10,2 C 10,6 C 9,4 C 65 % 994,4 hPa 0,0 l/m 2 min 0 min 236 W/m 22,5 km/h (4 Bft) 97,87 %
01.03.2020 14:34 10,2 C 10,6 C 10,0 C 65 % 994,3 hPa 0,0 l/m 2 min 0 min 229 W/m 16,1 km/h (3 Bft) 100,00 %
01.03.2020 14:36 10,2 C 10,6 C 10,0 C 65 % 994,3 hPa 0,0 l/m 0 min 0 min 218 W/m 12,9 km/h (3 Bft) 97,92 %
01.03.2020 14:38 10,2 C 10,6 C 10,0 C 65 % 994,3 hPa 0,0 l/m 0 min 0 min 207 W/m 35,4 km/h (5 Bft) 97,92 %
01.03.2020 14:40 10,2 C 10,0 C 9,4 C 64 % 994,3 hPa 0,0 l/m 0 min 0 min 199 W/m 48,3 km/h (6 Bft) 97,87 %
01.03.2020 14:42 10,2 C 10,0 C 9,4 C 64 % 994,3 hPa 0,0 l/m 0 min 0 min 178 W/m 41,8 km/h (6 Bft) 97,87 %
01.03.2020 14:44 10,2 C 10,0 C 9,4 C 63 % 994,2 hPa 0,0 l/m 0 min 0 min 162 W/m 35,4 km/h (5 Bft) 100,00 %
01.03.2020 14:46 10,1 C 10,0 C 9,4 C 64 % 994,3 hPa 0,0 l/m 0 min 0 min 164 W/m 35,4 km/h (5 Bft) 100,00 %
01.03.2020 14:48 10,1 C 10,0 C 9,4 C 64 % 994,3 hPa 0,0 l/m 0 min 0 min 182 W/m 38,6 km/h (5 Bft) 97,87 %
01.03.2020 14:50 10,1 C 10,0 C 9,4 C 64 % 994,4 hPa 0,0 l/m 0 min 0 min 185 W/m 25,7 km/h (4 Bft) 100,00 %
01.03.2020 14:52 10,1 C 10,0 C 9,4 C 65 % 994,3 hPa 0,0 l/m 0 min 0 min 180 W/m 41,8 km/h (6 Bft) 97,62 %
01.03.2020 14:54 10,1 C 10,0 C 9,4 C 65 % 994,2 hPa 0,0 l/m 0 min 0 min 182 W/m 19,3 km/h (3 Bft) 97,92 %
01.03.2020 14:56 10,1 C 10,0 C 9,4 C 65 % 994,3 hPa 0,0 l/m 0 min 0 min 183 W/m 29,0 km/h (5 Bft) 97,87 %
01.03.2020 14:58 10,1 C 10,0 C 9,4 C 65 % 994,2 hPa 0,0 l/m 0 min 0 min 190 W/m 22,5 km/h (4 Bft) 98,00 %
01.03.2020 15:00 10,1 C 10,0 C 9,4 C 65 % 994,2 hPa 0,0 l/m 0 min 0 min 191 W/m 35,4 km/h (5 Bft) 95,83 %
01.03.2020 15:02 10,1 C 10,0 C 9,4 C 65 % 994,2 hPa 0,0 l/m 0 min 0 min 192 W/m 25,7 km/h (4 Bft) 95,65 %
01.03.2020 15:04 10,1 C 10,0 C 9,4 C 65 % 994,3 hPa 0,0 l/m 0 min 0 min 189 W/m 25,7 km/h (4 Bft) 97,62 %
01.03.2020 15:06 10,1 C 10,0 C 9,4 C 65 % 994,2 hPa 0,0 l/m 0 min 0 min 183 W/m 22,5 km/h (4 Bft) 97,87 %
01.03.2020 15:08 10,1 C 10,0 C 9,4 C 65 % 994,3 hPa 0,0 l/m 0 min 0 min 172 W/m 25,7 km/h (4 Bft) 97,92 %
01.03.2020 15:10 10,1 C 10,0 C 9,4 C 65 % 994,2 hPa 0,0 l/m 0 min 0 min 167 W/m 25,7 km/h (4 Bft) 97,92 %
01.03.2020 15:12 10,0 C 10,0 C 9,4 C 66 % 994,2 hPa 0,0 l/m 0 min 0 min 164 W/m 22,5 km/h (4 Bft) 95,83 %
01.03.2020 15:14 10,0 C 10,0 C 9,4 C 65 % 994,2 hPa 0,0 l/m 0 min 0 min 162 W/m 22,5 km/h (4 Bft) 97,92 %
01.03.2020 15:16 10,0 C 10,0 C 9,4 C 65 % 994,2 hPa 0,0 l/m 0 min 0 min 162 W/m 35,4 km/h (5 Bft) 95,74 %
01.03.2020 15:18 10,0 C 9,4 C 9,4 C 64 % 994,1 hPa 0,0 l/m 0 min 0 min 163 W/m 38,6 km/h (5 Bft) 97,87 %
01.03.2020 15:20 9,9 C 10,0 C 9,4 C 65 % 994,2 hPa 0,0 l/m 0 min 0 min 162 W/m 35,4 km/h (5 Bft) 95,74 %
01.03.2020 15:22 9,9 C 9,4 C 9,4 C 64 % 994,2 hPa 0,0 l/m 0 min 0 min 162 W/m 32,2 km/h (5 Bft) 97,87 %
01.03.2020 15:24 9,9 C 9,4 C 9,4 C 64 % 994,0 hPa 0,0 l/m 0 min 0 min 162 W/m 41,8 km/h (6 Bft) 97,87 %
01.03.2020 15:26 9,9 C 9,4 C 8,9 C 64 % 994,0 hPa 0,0 l/m 0 min 0 min 165 W/m 41,8 km/h (6 Bft) 97,83 %
01.03.2020 15:28 9,9 C 10,0 C 8,9 C 65 % 994,0 hPa 0,0 l/m 0 min 0 min 172 W/m 29,0 km/h (5 Bft) 95,24 %
01.03.2020 15:30 9,9 C 10,0 C 9,4 C 65 % 994,0 hPa 0,0 l/m 0 min 0 min 177 W/m 35,4 km/h (5 Bft) 97,87 %
01.03.2020 15:32 9,9 C 10,0 C 9,4 C 65 % 993,9 hPa 0,0 l/m 2 min 0 min 204 W/m 25,7 km/h (4 Bft) 95,83 %
01.03.2020 15:34 9,9 C 10,6 C 9,4 C 65 % 993,9 hPa 0,0 l/m 2 min 0 min 244 W/m 25,7 km/h (4 Bft) 97,92 %
01.03.2020 15:36 9,9 C 10,6 C 9,4 C 64 % 993,8 hPa 0,0 l/m 2 min 0 min 236 W/m 22,5 km/h (4 Bft) 97,92 %
01.03.2020 15:38 9,9 C 10,6 C 9,4 C 65 % 993,8 hPa 0,0 l/m 2 min 0 min 225 W/m 19,3 km/h (3 Bft) 95,83 %
01.03.2020 15:40 10,0 C 10,6 C 9,4 C 65 % 993,8 hPa 0,0 l/m 2 min 0 min 224 W/m 29,0 km/h (5 Bft) 95,74 %
01.03.2020 15:42 10,0 C 10,6 C 9,4 C 64 % 993,7 hPa 0,0 l/m 2 min 0 min 206 W/m 45,1 km/h (6 Bft) 97,87 %
01.03.2020 15:44 10,0 C 10,0 C 9,4 C 64 % 993,7 hPa 0,0 l/m 2 min 0 min 178 W/m 32,2 km/h (5 Bft) 93,62 %
01.03.2020 15:46 10,1 C 10,0 C 9,4 C 64 % 993,6 hPa 0,0 l/m 0 min 0 min 157 W/m 22,5 km/h (4 Bft) 97,87 %
01.03.2020 15:48 10,0 C 10,0 C 9,4 C 64 % 993,6 hPa 0,0 l/m 0 min 0 min 140 W/m 22,5 km/h (4 Bft) 95,74 %
01.03.2020 15:50 10,0 C 10,0 C 9,4 C 64 % 993,6 hPa 0,0 l/m 0 min 0 min 136 W/m 38,6 km/h (5 Bft) 95,65 %
01.03.2020 15:52 10,0 C 9,4 C 9,4 C 64 % 993,6 hPa 0,0 l/m 0 min 0 min 143 W/m 25,7 km/h (4 Bft) 92,86 %
01.03.2020 15:54 10,0 C 9,4 C 9,4 C 64 % 993,5 hPa 0,0 l/m 0 min 0 min 145 W/m 35,4 km/h (5 Bft) 95,74 %
01.03.2020 15:56 10,0 C 9,4 C 9,4 C 64 % 993,5 hPa 0,0 l/m 0 min 0 min 139 W/m 32,2 km/h (5 Bft) 95,83 %
01.03.2020 15:58 10,0 C 9,4 C 8,9 C 64 % 993,5 hPa 0,0 l/m 0 min 0 min 134 W/m 29,0 km/h (5 Bft) 98,00 %
01.03.2020 16:00 9,9 C 9,4 C 9,4 C 64 % 993,4 hPa 0,0 l/m 0 min 0 min 130 W/m 19,3 km/h (3 Bft) 97,92 %
01.03.2020 16:02 9,9 C 9,4 C 8,9 C 65 % 993,4 hPa 0,0 l/m 0 min 0 min 123 W/m 22,5 km/h (4 Bft) 95,65 %
01.03.2020 16:04 9,9 C 9,4 C 8,9 C 65 % 993,4 hPa 0,0 l/m 0 min 0 min 116 W/m 22,5 km/h (4 Bft) 97,62 %
01.03.2020 16:06 9,9 C 9,4 C 8,9 C 65 % 993,3 hPa 0,0 l/m 0 min 0 min 122 W/m 25,7 km/h (4 Bft) 97,87 %
01.03.2020 16:08 9,9 C 9,4 C 8,9 C 64 % 993,2 hPa 0,0 l/m 0 min 0 min 122 W/m 29,0 km/h (5 Bft) 97,87 %
01.03.2020 16:10 9,9 C 9,4 C 8,9 C 65 % 993,3 hPa 0,0 l/m 0 min 0 min 113 W/m 22,5 km/h (4 Bft) 97,87 %
01.03.2020 16:12 9,9 C 9,4 C 8,9 C 65 % 993,3 hPa 0,0 l/m 0 min 0 min 104 W/m 19,3 km/h (3 Bft) 97,92 %
01.03.2020 16:14 9,9 C 9,4 C 8,9 C 65 % 993,3 hPa 0,0 l/m 0 min 0 min 95 W/m 19,3 km/h (3 Bft) 97,92 %
01.03.2020 16:16 9,9 C 9,4 C 8,9 C 65 % 993,2 hPa 0,0 l/m 0 min 0 min 86 W/m 19,3 km/h (3 Bft) 95,74 %
01.03.2020 16:18 9,9 C 9,4 C 8,9 C 66 % 993,1 hPa 0,0 l/m 0 min 0 min 80 W/m 12,9 km/h (3 Bft) 97,92 %
01.03.2020 16:20 9,8 C 9,4 C 8,9 C 66 % 993,0 hPa 0,0 l/m 0 min 0 min 85 W/m 12,9 km/h (3 Bft) 97,92 %
01.03.2020 16:22 9,8 C 9,4 C 8,9 C 66 % 993,0 hPa 0,0 l/m 0 min 0 min 93 W/m 16,1 km/h (3 Bft) 100,00 %
01.03.2020 16:24 9,8 C 9,4 C 8,9 C 66 % 993,0 hPa 0,0 l/m 0 min 0 min 92 W/m 19,3 km/h (3 Bft) 100,00 %
01.03.2020 16:26 9,8 C 9,4 C 8,9 C 66 % 992,9 hPa 0,0 l/m 0 min 0 min 90 W/m 22,5 km/h (4 Bft) 100,00 %
01.03.2020 16:28 9,8 C 9,4 C 8,9 C 66 % 992,9 hPa 0,0 l/m 0 min 0 min 86 W/m 29,0 km/h (5 Bft) 97,87 %
01.03.2020 16:30 9,8 C 9,4 C 8,9 C 66 % 992,9 hPa 0,0 l/m 0 min 0 min 84 W/m 19,3 km/h (3 Bft) 100,00 %
01.03.2020 16:32 9,8 C 9,4 C 8,9 C 67 % 992,9 hPa 0,0 l/m 0 min 0 min 84 W/m 22,5 km/h (4 Bft) 100,00 %
01.03.2020 16:34 9,8 C 9,4 C 8,9 C 67 % 992,9 hPa 0,0 l/m 0 min 0 min 83 W/m 22,5 km/h (4 Bft) 100,00 %
01.03.2020 16:36 9,8 C 9,4 C 8,9 C 67 % 992,8 hPa 0,0 l/m 0 min 0 min 83 W/m 16,1 km/h (3 Bft) 97,92 %
01.03.2020 16:38 9,8 C 9,4 C 8,9 C 68 % 992,9 hPa 0,0 l/m 0 min 0 min 80 W/m 12,9 km/h (3 Bft) 97,92 %
01.03.2020 16:40 9,8 C 9,4 C 8,9 C 68 % 992,9 hPa 0,0 l/m 0 min 0 min 79 W/m 6,4 km/h (2 Bft) 100,00 %
01.03.2020 16:42 9,8 C 9,4 C 8,9 C 68 % 992,9 hPa 0,0 l/m 0 min 0 min 80 W/m 9,7 km/h (2 Bft) 97,92 %
01.03.2020 16:44 9,8 C 9,4 C 8,9 C 69 % 992,9 hPa 0,0 l/m 0 min 0 min 82 W/m 6,4 km/h (2 Bft) 97,92 %
01.03.2020 16:46 9,8 C 9,4 C 8,9 C 69 % 992,9 hPa 0,0 l/m 0 min 0 min 85 W/m 12,9 km/h (3 Bft) 95,65 %
01.03.2020 16:48 9,8 C 9,4 C 8,9 C 69 % 992,8 hPa 0,0 l/m 0 min 0 min 86 W/m 19,3 km/h (3 Bft) 97,87 %
01.03.2020 16:50 9,8 C 9,4 C 8,9 C 69 % 992,9 hPa 0,0 l/m 0 min 0 min 86 W/m 16,1 km/h (3 Bft) 97,87 %
01.03.2020 16:52 9,8 C 9,4 C 8,9 C 69 % 992,8 hPa 0,0 l/m 0 min 0 min 86 W/m 19,3 km/h (3 Bft) 97,87 %
01.03.2020 16:54 9,8 C 9,4 C 8,9 C 69 % 992,8 hPa 0,0 l/m 0 min 0 min 86 W/m 16,1 km/h (3 Bft) 95,74 %
01.03.2020 16:56 9,8 C 9,4 C 8,9 C 69 % 992,8 hPa 0,0 l/m 0 min 0 min 85 W/m 16,1 km/h (3 Bft) 97,56 %
01.03.2020 16:58 9,7 C 9,4 C 8,9 C 69 % 992,7 hPa 0,0 l/m 0 min 0 min 80 W/m 19,3 km/h (3 Bft) 96,00 %
01.03.2020 17:00 9,8 C 9,4 C 8,9 C 69 % 992,7 hPa 0,0 l/m 0 min 0 min 77 W/m 16,1 km/h (3 Bft) 95,83 %
01.03.2020 17:02 9,7 C 9,4 C 8,9 C 69 % 992,7 hPa 0,0 l/m 0 min 0 min 76 W/m 25,7 km/h (4 Bft) 97,92 %
01.03.2020 17:04 9,7 C 9,4 C 8,9 C 69 % 992,7 hPa 0,0 l/m 0 min 0 min 74 W/m 12,9 km/h (3 Bft) 97,87 %
01.03.2020 17:06 9,8 C 9,4 C 8,9 C 69 % 992,7 hPa 0,0 l/m 0 min 0 min 73 W/m 12,9 km/h (3 Bft) 97,87 %
01.03.2020 17:08 9,7 C 9,4 C 8,9 C 70 % 992,7 hPa 0,0 l/m 0 min 0 min 71 W/m 16,1 km/h (3 Bft) 97,87 %
01.03.2020 17:10 9,7 C 9,4 C 8,9 C 70 % 992,7 hPa 0,0 l/m 0 min 0 min 68 W/m 19,3 km/h (3 Bft) 97,56 %
01.03.2020 17:12 9,7 C 9,4 C 8,9 C 70 % 992,7 hPa 0,0 l/m 0 min 0 min 63 W/m 12,9 km/h (3 Bft) 97,92 %
01.03.2020 17:14 9,7 C 9,4 C 8,9 C 70 % 992,7 hPa 0,0 l/m 0 min 0 min 58 W/m 22,5 km/h (4 Bft) 95,74 %
01.03.2020 17:16 9,7 C 9,4 C 8,9 C 70 % 992,7 hPa 0,0 l/m 0 min 0 min 53 W/m 16,1 km/h (3 Bft) 97,92 %
01.03.2020 17:18 9,7 C 8,9 C 8,3 C 70 % 992,7 hPa 0,0 l/m 0 min 0 min 49 W/m 19,3 km/h (3 Bft) 97,92 %
01.03.2020 17:20 9,7 C 8,9 C 8,3 C 70 % 992,7 hPa 0,0 l/m 0 min 0 min 44 W/m 16,1 km/h (3 Bft) 97,92 %
01.03.2020 17:22 9,7 C 8,9 C 8,3 C 70 % 992,7 hPa 0,0 l/m 0 min 0 min 39 W/m 12,9 km/h (3 Bft) 97,87 %
01.03.2020 17:24 9,7 C 8,9 C 8,3 C 70 % 992,7 hPa 0,0 l/m 0 min 0 min 38 W/m 12,9 km/h (3 Bft) 97,87 %
01.03.2020 17:26 9,7 C 8,9 C 8,3 C 70 % 992,7 hPa 0,0 l/m 0 min 0 min 34 W/m 16,1 km/h (3 Bft) 97,87 %
01.03.2020 17:28 9,7 C 8,9 C 8,3 C 70 % 992,6 hPa 0,0 l/m 0 min 0 min 31 W/m 12,9 km/h (3 Bft) 97,87 %
01.03.2020 17:30 9,7 C 8,9 C 8,3 C 70 % 992,7 hPa 0,0 l/m 0 min 0 min 29 W/m 16,1 km/h (3 Bft) 95,74 %
01.03.2020 17:32 9,6 C 8,9 C 8,3 C 71 % 992,7 hPa 0,0 l/m 0 min 0 min 28 W/m 9,7 km/h (2 Bft) 97,87 %
01.03.2020 17:34 9,6 C 8,9 C 8,3 C 71 % 992,7 hPa 0,0 l/m 0 min 0 min 26 W/m 16,1 km/h (3 Bft) 95,12 %
01.03.2020 17:36 9,6 C 8,9 C 8,3 C 71 % 992,7 hPa 0,0 l/m 0 min 0 min 25 W/m 12,9 km/h (3 Bft) 97,92 %
01.03.2020 17:38 9,6 C 8,9 C 8,3 C 71 % 992,7 hPa 0,0 l/m 0 min 0 min 21 W/m 19,3 km/h (3 Bft) 97,87 %
01.03.2020 17:40 9,6 C 8,9 C 8,3 C 71 % 992,7 hPa 0,0 l/m 0 min 0 min 19 W/m 16,1 km/h (3 Bft) 95,83 %
01.03.2020 17:42 9,6 C 8,9 C 8,3 C 71 % 992,6 hPa 0,0 l/m 0 min 0 min 17 W/m 25,7 km/h (4 Bft) 100,00 %
01.03.2020 17:44 9,6 C 8,9 C 8,3 C 71 % 992,7 hPa 0,0 l/m 0 min 0 min 15 W/m 16,1 km/h (3 Bft) 95,83 %
01.03.2020 17:46 9,6 C 8,9 C 8,3 C 72 % 992,6 hPa 0,0 l/m 0 min 0 min 14 W/m 16,1 km/h (3 Bft) 95,74 %
01.03.2020 17:48 9,6 C 8,9 C 8,3 C 72 % 992,6 hPa 0,0 l/m 0 min 0 min 12 W/m 12,9 km/h (3 Bft) 97,87 %
01.03.2020 17:50 9,6 C 8,3 C 7,8 C 72 % 992,6 hPa 0,0 l/m 0 min 0 min 11 W/m 16,1 km/h (3 Bft) 100,00 %
01.03.2020 17:52 9,6 C 8,3 C 7,8 C 72 % 992,6 hPa 0,0 l/m 0 min 0 min 11 W/m 6,4 km/h (2 Bft) 97,87 %
01.03.2020 17:54 9,5 C 8,3 C 7,8 C 72 % 992,6 hPa 0,0 l/m 0 min 0 min 11 W/m 12,9 km/h (3 Bft) 97,87 %
01.03.2020 17:56 9,5 C 8,3 C 7,8 C 72 % 992,5 hPa 0,0 l/m 0 min 0 min 9 W/m 6,4 km/h (2 Bft) 97,83 %
01.03.2020 17:58 9,5 C 8,3 C 7,8 C 72 % 992,5 hPa 0,0 l/m 0 min 0 min 10 W/m 6,4 km/h (2 Bft) 97,67 %
01.03.2020 18:00 9,4 C 8,3 C 7,8 C 72 % 992,4 hPa 0,0 l/m 0 min 0 min 9 W/m 19,3 km/h (3 Bft) 97,87 %
01.03.2020 18:02 9,4 C 8,3 C 7,8 C 72 % 992,4 hPa 0,0 l/m 0 min 0 min 9 W/m 12,9 km/h (3 Bft) 95,92 %
01.03.2020 18:04 9,4 C 8,3 C 7,8 C 73 % 992,4 hPa 0,0 l/m 0 min 0 min 7 W/m 12,9 km/h (3 Bft) 97,96 %
01.03.2020 18:08 9,4 C 8,3 C 7,8 C 73 % 992,3 hPa 0,0 l/m 0 min 0 min 6 W/m 12,9 km/h (3 Bft) 96,77 %
01.03.2020 18:10 9,3 C 8,3 C 7,8 C 73 % 992,3 hPa 0,0 l/m 0 min 0 min 5 W/m 3,2 km/h (1 Bft) 93,62 %
01.03.2020 18:12 9,3 C 8,3 C 7,8 C 73 % 992,3 hPa 0,0 l/m 0 min 0 min 1 W/m 6,4 km/h (2 Bft) 95,74 %
01.03.2020 18:14 9,3 C 8,3 C 7,8 C 74 % 992,3 hPa 0,0 l/m 0 min 0 min 0 W/m 3,2 km/h (1 Bft) 97,87 %
01.03.2020 18:16 9,3 C 8,3 C 7,2 C 73 % 992,3 hPa 0,0 l/m 0 min 0 min 0 W/m 3,2 km/h (1 Bft) 97,56 %
01.03.2020 18:18 9,3 C 7,8 C 7,2 C 74 % 992,3 hPa 0,0 l/m 0 min 0 min 0 W/m 3,2 km/h (1 Bft) 97,92 %
01.03.2020 18:20 9,3 C 7,8 C 7,2 C 74 % 992,2 hPa 0,0 l/m 0 min 0 min 0 W/m 0,0 km/h (0 Bft) 97,92 %
01.03.2020 18:22 9,3 C 7,8 C 7,2 C 74 % 992,2 hPa 0,0 l/m 0 min 0 min 0 W/m 3,2 km/h (1 Bft) 95,83 %
01.03.2020 18:24 9,3 C 7,8 C 7,2 C 74 % 992,3 hPa 0,0 l/m 0 min 0 min 0 W/m 0,0 km/h (0 Bft) 95,74 %
01.03.2020 18:26 9,2 C 7,8 C 7,2 C 75 % 992,2 hPa 0,0 l/m 0 min 0 min 0 W/m 0,0 km/h (0 Bft) 95,83 %
01.03.2020 18:28 9,2 C 7,8 C 7,2 C 75 % 992,3 hPa 0,0 l/m 0 min 0 min 0 W/m 0,0 km/h (0 Bft) 95,83 %
01.03.2020 18:30 9,2 C 7,8 C 7,2 C 75 % 992,2 hPa 0,0 l/m 0 min 0 min 0 W/m 0,0 km/h (0 Bft) 97,87 %
01.03.2020 18:32 9,2 C 7,8 C 7,2 C 75 % 992,2 hPa 0,0 l/m 0 min 0 min 0 W/m 6,4 km/h (2 Bft) 95,65 %
01.03.2020 18:34 9,2 C 7,8 C 7,2 C 75 % 992,2 hPa 0,0 l/m 0 min 0 min 0 W/m 12,9 km/h (3 Bft) 97,87 %
01.03.2020 18:36 9,1 C 7,8 C 7,2 C 75 % 992,3 hPa 0,0 l/m 0 min 0 min 0 W/m 6,4 km/h (2 Bft) 97,87 %
01.03.2020 18:38 9,1 C 7,8 C 7,2 C 76 % 992,3 hPa 0,0 l/m 0 min 0 min 0 W/m 12,9 km/h (3 Bft) 93,62 %
01.03.2020 18:40 9,1 C 7,8 C 7,2 C 76 % 992,3 hPa 0,0 l/m 0 min 0 min 0 W/m 12,9 km/h (3 Bft) 97,87 %
01.03.2020 18:42 9,1 C 7,8 C 7,2 C 77 % 992,3 hPa 0,0 l/m 0 min 0 min 0 W/m 12,9 km/h (3 Bft) 97,87 %
01.03.2020 18:44 9,0 C 7,8 C 7,2 C 77 % 992,3 hPa 0,0 l/m 0 min 0 min 0 W/m 12,9 km/h (3 Bft) 100,00 %
01.03.2020 18:46 9,0 C 7,8 C 7,2 C 78 % 992,3 hPa 0,0 l/m 0 min 0 min 0 W/m 3,2 km/h (1 Bft) 97,87 %
01.03.2020 18:48 8,9 C 7,8 C 6,7 C 78 % 992,2 hPa 0,0 l/m 0 min 0 min 0 W/m 6,4 km/h (2 Bft) 97,87 %
01.03.2020 18:50 8,9 C 7,2 C 6,7 C 78 % 992,2 hPa 0,0 l/m 0 min 0 min 0 W/m 6,4 km/h (2 Bft) 97,56 %
01.03.2020 18:52 8,9 C 7,8 C 6,7 C 78 % 992,2 hPa 0,0 l/m 0 min 0 min 0 W/m 6,4 km/h (2 Bft) 97,92 %
01.03.2020 18:54 8,9 C 7,8 C 6,7 C 79 % 992,2 hPa 0,0 l/m 0 min 0 min 0 W/m 6,4 km/h (2 Bft) 95,83 %
01.03.2020 18:56 8,8 C 7,8 C 6,7 C 79 % 992,2 hPa 0,0 l/m 0 min 0 min 0 W/m 16,1 km/h (3 Bft) 95,83 %
01.03.2020 18:58 8,8 C 7,2 C 6,7 C 79 % 992,2 hPa 0,0 l/m 0 min 0 min 0 W/m 19,3 km/h (3 Bft) 97,96 %
01.03.2020 19:00 8,8 C 7,2 C 6,7 C 79 % 992,2 hPa 0,0 l/m 0 min 0 min 0 W/m 12,9 km/h (3 Bft) 97,87 %
01.03.2020 19:02 8,7 C 7,8 C 7,2 C 80 % 992,3 hPa 0,0 l/m 0 min 0 min 0 W/m 22,5 km/h (4 Bft) 98,00 %
01.03.2020 19:04 8,7 C 7,8 C 7,2 C 80 % 992,2 hPa 0,0 l/m 0 min 0 min 0 W/m 19,3 km/h (3 Bft) 97,87 %
01.03.2020 19:06 8,7 C 7,8 C 7,2 C 80 % 992,2 hPa 0,0 l/m 0 min 0 min 0 W/m 19,3 km/h (3 Bft) 93,48 %
01.03.2020 19:08 8,6 C 7,8 C 7,2 C 80 % 992,3 hPa 0,0 l/m 0 min 0 min 0 W/m 16,1 km/h (3 Bft) 97,62 %
01.03.2020 19:10 8,6 C 7,8 C 7,2 C 81 % 992,2 hPa 0,0 l/m 0 min 0 min 0 W/m 16,1 km/h (3 Bft) 97,87 %
01.03.2020 19:12 8,6 C 7,2 C 7,2 C 81 % 992,2 hPa 0,0 l/m 0 min 0 min 0 W/m 16,1 km/h (3 Bft) 95,83 %
01.03.2020 19:14 8,6 C 7,2 C 6,7 C 81 % 992,2 hPa 0,0 l/m 0 min 0 min 0 W/m 22,5 km/h (4 Bft) 97,92 %
01.03.2020 19:16 8,5 C 7,2 C 6,7 C 82 % 992,2 hPa 0,0 l/m 0 min 0 min 0 W/m 22,5 km/h (4 Bft) 100,00 %
01.03.2020 19:18 8,4 C 7,2 C 6,7 C 82 % 992,2 hPa 0,0 l/m 0 min 0 min 0 W/m 19,3 km/h (3 Bft) 97,92 %
01.03.2020 19:20 8,4 C 7,2 C 6,7 C 82 % 992,2 hPa 0,0 l/m 0 min 0 min 0 W/m 19,3 km/h (3 Bft) 100,00 %
01.03.2020 19:22 8,4 C 7,2 C 6,7 C 83 % 992,2 hPa 0,0 l/m 0 min 0 min 0 W/m 16,1 km/h (3 Bft) 100,00 %
01.03.2020 19:24 8,4 C 7,2 C 6,7 C 83 % 992,2 hPa 0,0 l/m 0 min 0 min 0 W/m 16,1 km/h (3 Bft) 100,00 %
01.03.2020 19:26 8,3 C 7,2 C 6,7 C 83 % 992,3 hPa 0,0 l/m 0 min 0 min 0 W/m 19,3 km/h (3 Bft) 100,00 %
01.03.2020 19:28 8,3 C 7,2 C 6,7 C 83 % 992,2 hPa 0,0 l/m 0 min 0 min 0 W/m 16,1 km/h (3 Bft) 97,83 %
01.03.2020 19:30 8,3 C 7,2 C 6,7 C 84 % 992,2 hPa 0,0 l/m 0 min 0 min 0 W/m 22,5 km/h (4 Bft) 100,00 %
01.03.2020 19:32 8,2 C 6,7 C 6,7 C 84 % 992,2 hPa 0,0 l/m 0 min 0 min 0 W/m 6,4 km/h (2 Bft) 100,00 %
01.03.2020 19:34 8,2 C 6,7 C 6,7 C 84 % 992,2 hPa 0,0 l/m 0 min 0 min 0 W/m 16,1 km/h (3 Bft) 100,00 %
01.03.2020 19:36 8,1 C 6,7 C 6,7 C 84 % 992,3 hPa 0,0 l/m 0 min 0 min 0 W/m 12,9 km/h (3 Bft) 100,00 %
01.03.2020 19:38 8,1 C 6,7 C 6,7 C 84 % 992,3 hPa 0,0 l/m 0 min 0 min 0 W/m 19,3 km/h (3 Bft) 100,00 %
01.03.2020 19:40 8,1 C 6,7 C 6,1 C 85 % 992,3 hPa 0,0 l/m 0 min 2 min 0 W/m 12,9 km/h (3 Bft) 100,00 %
01.03.2020 19:42 8,1 C 6,7 C 6,1 C 85 % 992,3 hPa 0,0 l/m 0 min 2 min 0 W/m 12,9 km/h (3 Bft) 100,00 %
01.03.2020 19:44 8,0 C 6,1 C 5,6 C 85 % 992,2 hPa 0,0 l/m 0 min 2 min 0 W/m 12,9 km/h (3 Bft) 100,00 %
01.03.2020 19:46 8,0 C 6,1 C 5,6 C 86 % 992,3 hPa 0,0 l/m 0 min 2 min 0 W/m 16,1 km/h (3 Bft) 100,00 %
01.03.2020 19:48 7,9 C 6,1 C 5,6 C 86 % 992,3 hPa 0,0 l/m 0 min 2 min 0 W/m 16,1 km/h (3 Bft) 100,00 %
01.03.2020 19:50 7,9 C 5,6 C 5,6 C 86 % 992,3 hPa 0,0 l/m 0 min 2 min 0 W/m 19,3 km/h (3 Bft) 100,00 %
01.03.2020 19:52 7,8 C 5,6 C 5,0 C 86 % 992,3 hPa 0,0 l/m 0 min 2 min 0 W/m 12,9 km/h (3 Bft) 100,00 %
01.03.2020 19:54 7,8 C 5,6 C 5,0 C 87 % 992,4 hPa 0,0 l/m 0 min 2 min 0 W/m 19,3 km/h (3 Bft) 100,00 %
01.03.2020 19:56 7,7 C 5,6 C 5,0 C 87 % 992,4 hPa 0,0 l/m 0 min 2 min 0 W/m 16,1 km/h (3 Bft) 100,00 %
01.03.2020 19:58 7,7 C 5,6 C 5,0 C 87 % 992,4 hPa 0,0 l/m 0 min 2 min 0 W/m 16,1 km/h (3 Bft) 97,87 %
01.03.2020 20:00 7,6 C 5,6 C 5,0 C 87 % 992,4 hPa 0,0 l/m 0 min 2 min 0 W/m 19,3 km/h (3 Bft) 100,00 %
01.03.2020 20:02 7,6 C 5,0 C 5,0 C 87 % 992,4 hPa 0,0 l/m 0 min 2 min 0 W/m 12,9 km/h (3 Bft) 97,87 %
01.03.2020 20:04 7,6 C 5,0 C 5,0 C 88 % 992,4 hPa 0,2 l/m 0 min 2 min 0 W/m 16,1 km/h (3 Bft) 97,83 %
01.03.2020 20:06 7,5 C 5,0 C 5,0 C 88 % 992,4 hPa 0,0 l/m 0 min 2 min 0 W/m 16,1 km/h (3 Bft) 100,00 %
01.03.2020 20:08 7,4 C 5,0 C 4,4 C 88 % 992,4 hPa 0,0 l/m 0 min 2 min 0 W/m 16,1 km/h (3 Bft) 100,00 %
01.03.2020 20:10 7,4 C 5,0 C 4,4 C 88 % 992,4 hPa 0,2 l/m 0 min 2 min 0 W/m 12,9 km/h (3 Bft) 97,87 %
01.03.2020 20:12 7,3 C 5,0 C 4,4 C 89 % 992,4 hPa 0,0 l/m 0 min 2 min 0 W/m 16,1 km/h (3 Bft) 97,87 %
01.03.2020 20:14 7,3 C 5,0 C 4,4 C 89 % 992,4 hPa 0,0 l/m 0 min 2 min 0 W/m 16,1 km/h (3 Bft) 93,62 %
01.03.2020 20:16 7,2 C 5,0 C 4,4 C 89 % 992,4 hPa 0,2 l/m 0 min 2 min 0 W/m 12,9 km/h (3 Bft) 97,83 %
01.03.2020 20:18 7,2 C 5,0 C 4,4 C 89 % 992,4 hPa 0,0 l/m 0 min 2 min 0 W/m 12,9 km/h (3 Bft) 95,74 %
01.03.2020 20:20 7,2 C 5,0 C 4,4 C 90 % 992,4 hPa 0,2 l/m 0 min 2 min 0 W/m 12,9 km/h (3 Bft) 97,87 %
01.03.2020 20:22 7,1 C 5,0 C 4,4 C 90 % 992,3 hPa 0,0 l/m 0 min 2 min 0 W/m 16,1 km/h (3 Bft) 97,87 %
01.03.2020 20:24 7,1 C 5,0 C 4,4 C 90 % 992,3 hPa 0,0 l/m 0 min 2 min 0 W/m 16,1 km/h (3 Bft) 97,87 %
01.03.2020 20:26 7,0 C 5,0 C 4,4 C 90 % 992,3 hPa 0,2 l/m 0 min 2 min 0 W/m 6,4 km/h (2 Bft) 97,87 %
01.03.2020 20:28 6,9 C 5,0 C 4,4 C 91 % 992,2 hPa 0,2 l/m 0 min 2 min 0 W/m 19,3 km/h (3 Bft) 97,83 %
01.03.2020 20:30 6,9 C 5,0 C 4,4 C 91 % 992,3 hPa 0,0 l/m 0 min 2 min 0 W/m 22,5 km/h (4 Bft) 97,87 %
01.03.2020 20:32 6,8 C 5,0 C 4,4 C 91 % 992,3 hPa 0,0 l/m 0 min 2 min 0 W/m 19,3 km/h (3 Bft) 95,74 %
01.03.2020 20:34 6,8 C 5,0 C 4,4 C 91 % 992,2 hPa 0,2 l/m 0 min 2 min 0 W/m 19,3 km/h (3 Bft) 95,74 %
01.03.2020 20:36 6,7 C 5,0 C 4,4 C 92 % 992,2 hPa 0,0 l/m 0 min 2 min 0 W/m 22,5 km/h (4 Bft) 93,62 %
01.03.2020 20:38 6,7 C 5,0 C 4,4 C 92 % 992,2 hPa 0,0 l/m 0 min 2 min 0 W/m 22,5 km/h (4 Bft) 95,65 %
01.03.2020 20:40 6,6 C 5,0 C 4,4 C 92 % 992,1 hPa 0,0 l/m 0 min 2 min 0 W/m 16,1 km/h (3 Bft) 95,74 %
01.03.2020 20:42 6,6 C 5,0 C 4,4 C 92 % 992,2 hPa 0,2 l/m 0 min 2 min 0 W/m 16,1 km/h (3 Bft) 95,74 %
01.03.2020 20:44 6,5 C 5,0 C 4,4 C 93 % 992,2 hPa 0,0 l/m 0 min 2 min 0 W/m 12,9 km/h (3 Bft) 95,74 %
01.03.2020 20:46 6,5 C 5,0 C 4,4 C 93 % 992,2 hPa 0,0 l/m 0 min 2 min 0 W/m 19,3 km/h (3 Bft) 93,62 %
01.03.2020 20:48 6,5 C 5,0 C 4,4 C 93 % 992,2 hPa 0,0 l/m 0 min 2 min 0 W/m 19,3 km/h (3 Bft) 95,74 %
01.03.2020 20:50 6,5 C 5,0 C 4,4 C 93 % 992,1 hPa 0,0 l/m 0 min 2 min 0 W/m 12,9 km/h (3 Bft) 93,48 %
01.03.2020 20:52 6,4 C 5,0 C 4,4 C 93 % 992,1 hPa 0,0 l/m 0 min 2 min 0 W/m 16,1 km/h (3 Bft) 97,87 %
01.03.2020 20:54 6,4 C 5,0 C 4,4 C 93 % 992,0 hPa 0,0 l/m 0 min 2 min 0 W/m 12,9 km/h (3 Bft) 97,87 %
01.03.2020 20:56 6,4 C 5,0 C 4,4 C 94 % 992,0 hPa 0,2 l/m 0 min 2 min 0 W/m 16,1 km/h (3 Bft) 97,87 %
01.03.2020 20:58 6,3 C 5,0 C 4,4 C 94 % 991,9 hPa 0,0 l/m 0 min 2 min 0 W/m 19,3 km/h (3 Bft) 95,74 %
01.03.2020 21:00 6,3 C 5,0 C 4,4 C 94 % 991,9 hPa 0,0 l/m 0 min 2 min 0 W/m 16,1 km/h (3 Bft) 97,87 %
01.03.2020 21:02 6,3 C 5,0 C 4,4 C 94 % 991,9 hPa 0,0 l/m 0 min 2 min 0 W/m 12,9 km/h (3 Bft) 97,83 %
01.03.2020 21:04 6,3 C 5,0 C 4,4 C 94 % 991,9 hPa 0,0 l/m 0 min 2 min 0 W/m 12,9 km/h (3 Bft) 97,87 %
01.03.2020 21:06 6,3 C 5,0 C 4,4 C 94 % 991,9 hPa 0,0 l/m 0 min 2 min 0 W/m 16,1 km/h (3 Bft) 95,74 %
01.03.2020 21:08 6,2 C 5,0 C 4,4 C 94 % 991,9 hPa 0,0 l/m 0 min 2 min 0 W/m 12,9 km/h (3 Bft) 97,87 %
01.03.2020 21:10 6,2 C 5,0 C 4,4 C 94 % 992,0 hPa 0,0 l/m 0 min 2 min 0 W/m 12,9 km/h (3 Bft) 93,62 %
01.03.2020 21:12 6,2 C 5,0 C 4,4 C 94 % 992,1 hPa 0,0 l/m 0 min 0 min 0 W/m 12,9 km/h (3 Bft) 97,87 %
01.03.2020 21:14 6,2 C 5,0 C 4,4 C 94 % 992,1 hPa 0,0 l/m 0 min 2 min 0 W/m 0,0 km/h (0 Bft) 100,00 %
01.03.2020 21:16 6,2 C 4,4 C 4,4 C 94 % 992,2 hPa 0,0 l/m 0 min 2 min 0 W/m 12,9 km/h (3 Bft) 97,87 %
01.03.2020 21:18 6,1 C 4,4 C 4,4 C 94 % 992,2 hPa 0,0 l/m 0 min 2 min 0 W/m 6,4 km/h (2 Bft) 97,87 %
01.03.2020 21:20 6,1 C 4,4 C 4,4 C 94 % 992,2 hPa 0,0 l/m 0 min 2 min 0 W/m 6,4 km/h (2 Bft) 97,87 %
01.03.2020 21:22 6,1 C 4,4 C 4,4 C 94 % 992,3 hPa 0,0 l/m 0 min 2 min 0 W/m 12,9 km/h (3 Bft) 97,87 %
01.03.2020 21:24 6,1 C 4,4 C 4,4 C 95 % 992,3 hPa 0,0 l/m 0 min 2 min 0 W/m 6,4 km/h (2 Bft) 97,87 %
01.03.2020 21:26 6,1 C 4,4 C 4,4 C 95 % 992,3 hPa 0,2 l/m 0 min 2 min 0 W/m 12,9 km/h (3 Bft) 95,65 %
01.03.2020 21:28 6,1 C 4,4 C 4,4 C 95 % 992,3 hPa 0,0 l/m 0 min 2 min 0 W/m 9,7 km/h (2 Bft) 95,74 %
01.03.2020 21:30 6,0 C 4,4 C 4,4 C 95 % 992,3 hPa 0,0 l/m 0 min 0 min 0 W/m 6,4 km/h (2 Bft) 93,62 %
01.03.2020 21:32 6,0 C 4,4 C 4,4 C 95 % 992,3 hPa 0,0 l/m 0 min 0 min 0 W/m 3,2 km/h (1 Bft) 95,92 %
01.03.2020 21:34 6,0 C 4,4 C 4,4 C 95 % 992,3 hPa 0,0 l/m 0 min 0 min 0 W/m 0,0 km/h (0 Bft) 95,74 %
01.03.2020 21:36 6,0 C 4,4 C 4,4 C 95 % 992,4 hPa 0,0 l/m 0 min 0 min 0 W/m 9,7 km/h (2 Bft) 95,74 %
01.03.2020 21:38 5,9 C 4,4 C 4,4 C 95 % 992,4 hPa 0,0 l/m 0 min 0 min 0 W/m 6,4 km/h (2 Bft) 95,65 %
01.03.2020 21:40 5,9 C 4,4 C 4,4 C 95 % 992,4 hPa 0,0 l/m 0 min 2 min 0 W/m 3,2 km/h (1 Bft) 95,74 %
01.03.2020 21:42 5,9 C 4,4 C 4,4 C 95 % 992,4 hPa 0,0 l/m 0 min 2 min 0 W/m 12,9 km/h (3 Bft) 97,87 %
01.03.2020 21:44 5,9 C 4,4 C 4,4 C 95 % 992,4 hPa 0,0 l/m 0 min 2 min 0 W/m 6,4 km/h (2 Bft) 97,87 %
01.03.2020 21:46 5,9 C 4,4 C 4,4 C 95 % 992,5 hPa 0,0 l/m 0 min 2 min 0 W/m 6,4 km/h (2 Bft) 93,62 %
01.03.2020 21:48 5,9 C 4,4 C 4,4 C 95 % 992,5 hPa 0,0 l/m 0 min 2 min 0 W/m 6,4 km/h (2 Bft) 95,74 %
01.03.2020 21:50 5,9 C 4,4 C 4,4 C 95 % 992,5 hPa 0,0 l/m 0 min 2 min 0 W/m 6,4 km/h (2 Bft) 97,83 %
01.03.2020 21:52 5,9 C 4,4 C 4,4 C 95 % 992,5 hPa 0,0 l/m 0 min 2 min 0 W/m 6,4 km/h (2 Bft) 97,87 %
01.03.2020 21:54 5,9 C 4,4 C 4,4 C 95 % 992,5 hPa 0,2 l/m 0 min 2 min 0 W/m 12,9 km/h (3 Bft) 97,87 %
01.03.2020 21:56 5,8 C 4,4 C 4,4 C 95 % 992,6 hPa 0,0 l/m 0 min 2 min 0 W/m 3,2 km/h (1 Bft) 93,62 %
01.03.2020 21:58 5,8 C 4,4 C 3,9 C 95 % 992,6 hPa 0,2 l/m 0 min 2 min 0 W/m 16,1 km/h (3 Bft) 97,87 %
01.03.2020 22:00 5,8 C 4,4 C 3,9 C 95 % 992,5 hPa 0,0 l/m 0 min 2 min 0 W/m 3,2 km/h (1 Bft) 97,87 %
01.03.2020 22:02 5,8 C 4,4 C 3,9 C 95 % 992,5 hPa 0,0 l/m 0 min 2 min 0 W/m 0,0 km/h (0 Bft) 95,65 %
01.03.2020 22:04 5,8 C 4,4 C 3,9 C 96 % 992,6 hPa 0,0 l/m 0 min 0 min 0 W/m 0,0 km/h (0 Bft) 95,74 %
01.03.2020 22:06 5,8 C 4,4 C 3,9 C 96 % 992,6 hPa 0,0 l/m 0 min 0 min 0 W/m 0,0 km/h (0 Bft) 97,87 %
01.03.2020 22:08 5,8 C 4,4 C 3,9 C 96 % 992,6 hPa 0,0 l/m 0 min 0 min 0 W/m 0,0 km/h (0 Bft) 95,74 %
01.03.2020 22:10 5,8 C 4,4 C 3,9 C 96 % 992,5 hPa 0,0 l/m 0 min 0 min 0 W/m 0,0 km/h (0 Bft) 97,87 %
01.03.2020 22:12 5,7 C 4,4 C 3,9 C 96 % 992,6 hPa 0,0 l/m 0 min 0 min 0 W/m 0,0 km/h (0 Bft) 97,87 %
01.03.2020 22:14 5,7 C 4,4 C 3,9 C 96 % 992,7 hPa 0,0 l/m 0 min 0 min 0 W/m 0,0 km/h (0 Bft) 100,00 %
01.03.2020 22:16 5,7 C 4,4 C 3,9 C 96 % 992,7 hPa 0,0 l/m 0 min 0 min 0 W/m 6,4 km/h (2 Bft) 100,00 %
01.03.2020 22:18 5,7 C 4,4 C 3,9 C 96 % 992,7 hPa 0,0 l/m 0 min 0 min 0 W/m 0,0 km/h (0 Bft) 95,74 %
01.03.2020 22:20 5,7 C 4,4 C 3,9 C 96 % 992,7 hPa 0,0 l/m 0 min 0 min 0 W/m 0,0 km/h (0 Bft) 97,87 %
01.03.2020 22:22 5,7 C 4,4 C 3,9 C 96 % 992,7 hPa 0,0 l/m 0 min 0 min 0 W/m 0,0 km/h (0 Bft) 97,87 %
01.03.2020 22:24 5,7 C 4,4 C 4,4 C 96 % 992,8 hPa 0,0 l/m 0 min 0 min 0 W/m 0,0 km/h (0 Bft) 100,00 %
01.03.2020 22:26 5,7 C 4,4 C 3,9 C 96 % 992,8 hPa 0,0 l/m 0 min 0 min 0 W/m 3,2 km/h (1 Bft) 97,83 %
01.03.2020 22:28 5,7 C 4,4 C 3,9 C 96 % 992,8 hPa 0,0 l/m 0 min 2 min 0 W/m 0,0 km/h (0 Bft) 95,74 %
01.03.2020 22:30 5,6 C 4,4 C 3,9 C 96 % 992,8 hPa 0,0 l/m 0 min 0 min 0 W/m 0,0 km/h (0 Bft) 95,74 %
01.03.2020 22:32 5,7 C 4,4 C 3,9 C 96 % 992,8 hPa 0,0 l/m 0 min 2 min 0 W/m 0,0 km/h (0 Bft) 97,87 %
01.03.2020 22:34 5,6 C 4,4 C 3,9 C 96 % 992,8 hPa 0,0 l/m 0 min 0 min 0 W/m 0,0 km/h (0 Bft) 97,87 %
01.03.2020 22:36 5,6 C 4,4 C 3,9 C 96 % 992,8 hPa 0,0 l/m 0 min 0 min 0 W/m 0,0 km/h (0 Bft) 95,65 %
01.03.2020 22:38 5,6 C 4,4 C 3,9 C 96 % 992,8 hPa 0,0 l/m 0 min 0 min 0 W/m 0,0 km/h (0 Bft) 95,74 %
01.03.2020 22:40 5,6 C 4,4 C 3,9 C 96 % 992,9 hPa 0,0 l/m 0 min 0 min 0 W/m 0,0 km/h (0 Bft) 97,87 %
01.03.2020 22:42 5,6 C 4,4 C 3,9 C 96 % 992,9 hPa 0,0 l/m 0 min 0 min 0 W/m 0,0 km/h (0 Bft) 97,87 %
01.03.2020 22:44 5,6 C 4,4 C 3,9 C 96 % 992,9 hPa 0,0 l/m 0 min 0 min 0 W/m 0,0 km/h (0 Bft) 97,87 %
01.03.2020 22:46 5,6 C 4,4 C 3,9 C 96 % 993,0 hPa 0,0 l/m 0 min 0 min 0 W/m 0,0 km/h (0 Bft) 97,87 %
01.03.2020 22:48 5,6 C 4,4 C 3,9 C 96 % 993,0 hPa 0,0 l/m 0 min 0 min 0 W/m 3,2 km/h (1 Bft) 97,83 %
01.03.2020 22:50 5,6 C 4,4 C 3,9 C 96 % 993,0 hPa 0,0 l/m 0 min 0 min 0 W/m 3,2 km/h (1 Bft) 95,74 %
01.03.2020 22:52 5,6 C 4,4 C 3,9 C 96 % 993,0 hPa 0,0 l/m 0 min 0 min 0 W/m 0,0 km/h (0 Bft) 97,87 %
01.03.2020 22:54 5,6 C 4,4 C 3,9 C 96 % 993,1 hPa 0,0 l/m 0 min 0 min 0 W/m 0,0 km/h (0 Bft) 97,87 %
01.03.2020 22:56 5,5 C 4,4 C 3,9 C 96 % 993,1 hPa 0,0 l/m 0 min 0 min 0 W/m 0,0 km/h (0 Bft) 95,74 %
01.03.2020 22:58 5,5 C 4,4 C 3,9 C 96 % 993,1 hPa 0,0 l/m 0 min 0 min 0 W/m 0,0 km/h (0 Bft) 95,74 %
01.03.2020 23:00 5,5 C 4,4 C 3,9 C 96 % 993,1 hPa 0,0 l/m 0 min 0 min 0 W/m 0,0 km/h (0 Bft) 93,48 %
01.03.2020 23:02 5,5 C 4,4 C 3,9 C 96 % 993,1 hPa 0,0 l/m 0 min 0 min 0 W/m 0,0 km/h (0 Bft) 97,87 %
01.03.2020 23:04 5,5 C 4,4 C 3,9 C 96 % 993,2 hPa 0,0 l/m 0 min 0 min 0 W/m 0,0 km/h (0 Bft) 95,74 %
01.03.2020 23:06 5,4 C 4,4 C 3,9 C 96 % 993,2 hPa 0,0 l/m 0 min 0 min 0 W/m 0,0 km/h (0 Bft) 97,87 %
01.03.2020 23:08 5,4 C 4,4 C 3,9 C 96 % 993,2 hPa 0,0 l/m 0 min 0 min 0 W/m 0,0 km/h (0 Bft) 97,87 %
01.03.2020 23:10 5,4 C 4,4 C 3,9 C 96 % 993,2 hPa 0,0 l/m 0 min 0 min 0 W/m 0,0 km/h (0 Bft) 97,87 %
01.03.2020 23:12 5,4 C 4,4 C 3,9 C 96 % 993,2 hPa 0,0 l/m 0 min 0 min 0 W/m 3,2 km/h (1 Bft) 100,00 %
01.03.2020 23:14 5,4 C 4,4 C 3,9 C 96 % 993,2 hPa 0,0 l/m 0 min 0 min 0 W/m 0,0 km/h (0 Bft) 100,00 %
01.03.2020 23:16 5,4 C 4,4 C 3,9 C 96 % 993,2 hPa 0,0 l/m 0 min 0 min 0 W/m 0,0 km/h (0 Bft) 56,52 %
01.03.2020 23:18 5,4 C 4,4 C 3,9 C 96 % 993,2 hPa 0,0 l/m 0 min 2 min 0 W/m 3,2 km/h (1 Bft) 97,87 %
01.03.2020 23:20 5,4 C 4,4 C 3,9 C 96 % 993,2 hPa 0,0 l/m 0 min 0 min 0 W/m 0,0 km/h (0 Bft) 100,00 %
01.03.2020 23:22 5,4 C 4,4 C 3,9 C 96 % 993,2 hPa 0,0 l/m 0 min 0 min 0 W/m 0,0 km/h (0 Bft) 100,00 %
01.03.2020 23:24 5,4 C 4,4 C 3,9 C 96 % 993,2 hPa 0,0 l/m 0 min 0 min 0 W/m 3,2 km/h (1 Bft) 100,00 %
01.03.2020 23:26 5,4 C 4,4 C 3,9 C 96 % 993,3 hPa 0,0 l/m 0 min 0 min 0 W/m 6,4 km/h (2 Bft) 100,00 %
01.03.2020 23:28 5,4 C 4,4 C 3,9 C 96 % 993,3 hPa 0,0 l/m 0 min 0 min 0 W/m 6,4 km/h (2 Bft) 100,00 %
01.03.2020 23:30 5,4 C 4,4 C 3,9 C 96 % 993,3 hPa 0,0 l/m 0 min 0 min 0 W/m 0,0 km/h (0 Bft) 100,00 %
01.03.2020 23:32 5,4 C 4,4 C 3,9 C 97 % 993,3 hPa 0,0 l/m 0 min 0 min 0 W/m 0,0 km/h (0 Bft) 97,87 %
01.03.2020 23:34 5,3 C 4,4 C 3,9 C 97 % 993,3 hPa 0,0 l/m 0 min 0 min 0 W/m 0,0 km/h (0 Bft) 100,00 %
01.03.2020 23:36 5,3 C 4,4 C 3,9 C 97 % 993,3 hPa 0,0 l/m 0 min 0 min 0 W/m 0,0 km/h (0 Bft) 100,00 %
01.03.2020 23:38 5,3 C 4,4 C 3,9 C 97 % 993,4 hPa 0,0 l/m 0 min 0 min 0 W/m 0,0 km/h (0 Bft) 100,00 %
01.03.2020 23:40 5,3 C 4,4 C 3,9 C 97 % 993,3 hPa 0,0 l/m 0 min 0 min 0 W/m 3,2 km/h (1 Bft) 100,00 %
01.03.2020 23:42 5,3 C 4,4 C 3,9 C 97 % 993,4 hPa 0,0 l/m 0 min 0 min 0 W/m 12,9 km/h (3 Bft) 100,00 %
01.03.2020 23:44 5,3 C 4,4 C 3,9 C 96 % 993,4 hPa 0,0 l/m 0 min 0 min 0 W/m 0,0 km/h (0 Bft) 100,00 %
01.03.2020 23:46 5,3 C 4,4 C 3,9 C 97 % 993,4 hPa 0,0 l/m 0 min 0 min 0 W/m 0,0 km/h (0 Bft) 97,83 %
01.03.2020 23:48 5,3 C 4,4 C 3,9 C 96 % 993,4 hPa 0,0 l/m 0 min 0 min 0 W/m 3,2 km/h (1 Bft) 100,00 %
01.03.2020 23:50 5,3 C 4,4 C 3,9 C 96 % 993,4 hPa 0,0 l/m 0 min 0 min 0 W/m 3,2 km/h (1 Bft) 100,00 %
01.03.2020 23:52 5,3 C 4,4 C 3,9 C 96 % 993,4 hPa 0,0 l/m 0 min 0 min 0 W/m 3,2 km/h (1 Bft) 100,00 %
01.03.2020 23:54 5,3 C 4,4 C 3,9 C 97 % 993,5 hPa 0,0 l/m 0 min 0 min 0 W/m 12,9 km/h (3 Bft) 100,00 %
01.03.2020 23:56 5,3 C 3,9 C 3,9 C 97 % 993,5 hPa 0,0 l/m 0 min 0 min 0 W/m 0,0 km/h (0 Bft) 100,00 %
01.03.2020 23:58 5,2 C 3,9 C 3,9 C 97 % 993,5 hPa 0,0 l/m 0 min 0 min 0 W/m 0,0 km/h (0 Bft) 100,00 %
_ Min-Zeit 23:58 23:56 00:34 14:44 20:58 - - - - 18:20 00:02
Minimum _ 5,2 C 3,9 C 3,9 C 63 % 991,9 hPa - - - - 0,0 km/h (0 Bft) 7,69 %
_ Max-Zeit 13:56 11:30 12:48 23:32 00:20 20:04 09:10 06:08 12:26 07:28 01:22
Maximum _ 10,4 C 14,4 C 11,1 C 97 % 995,8 hPa 0,2 l/m 2 min 2 min 699 W/m 64,4 km/h
SO (8 Bft)
100,00 %
Durchschnitt _ 7,4 C 7,0 C 6,2 C 80 % 994,1 hPa #2,4 l/m #3:26 h #2:38 h 187 W/m 23,2 km/h (4 Bft) 97,04 %
© 2020 W. Hausmann